| time (UTC) | temp F | wind direction | speed knots | gust knots | rain 1hr in | rain 24hr in | rain mn in | humidity % | barometer mb |
| 20260507010521 | 63 | 312 | 1.7 | 5.2 | 0.04 | 0.09 | 0.09 | 93 | 1012.4 |
| 20260507010421 | 63 | 101 | 1.7 | 6.1 | 0.04 | 0.09 | 0.09 | 93 | 1012.3 |
| 20260507010321 | 63 | 128 | 1.7 | 6.1 | 0.04 | 0.09 | 0.09 | 93 | 1012.3 |
| 20260507010222 | 63 | 136 | 2.6 | 6.1 | 0.05 | 0.09 | 0.09 | 93 | 1012.4 |
| 20260507010122 | 63 | 87 | 2.6 | 6.1 | 0.04 | 0.08 | 0.09 | 93 | 1012.3 |
| 20260507010021 | 63 | 150 | 2.6 | 6.1 | 0.04 | 0.08 | 0.08 | 93 | 1012.3 |
| 20260507005921 | 63 | 141 | 2.6 | 6.1 | 0.04 | 0.08 | 0.08 | 93 | 1012.3 |
| 20260507005821 | 63 | 143 | 2.6 | 6.1 | 0.04 | 0.08 | 0.08 | 93 | 1012.3 |
| 20260507005720 | 63 | 144 | 2.6 | 6.1 | 0.04 | 0.08 | 0.08 | 93 | 1012.3 |
| 20260507005620 | 63 | 148 | 2.6 | 6.1 | 0.04 | 0.08 | 0.08 | 93 | 1012.3 |
| 20260507005520 | 63 | 148 | 2.6 | 6.1 | 0.04 | 0.08 | 0.08 | 93 | 1012.4 |
| 20260507005421 | 63 | 177 | 2.6 | 5.2 | 0.04 | 0.08 | 0.08 | 93 | 1012.4 |
| 20260507005321 | 63 | 215 | 2.6 | 6.1 | 0.04 | 0.08 | 0.08 | 93 | 1012.4 |
| 20260507005222 | 63 | 130 | 2.6 | 7.0 | 0.04 | 0.08 | 0.08 | 93 | 1012.4 |
| 20260507005121 | 63 | 182 | 2.6 | 7.0 | 0.04 | 0.08 | 0.08 | 93 | 1012.4 |
| 20260507005020 | 63 | 149 | 2.6 | 7.8 | 0.04 | 0.08 | 0.08 | 93 | 1012.4 |
| 20260507004820 | 63 | 165 | 2.6 | 7.8 | 0.04 | 0.08 | 0.08 | 93 | 1012.4 |
| 20260507004721 | 63 | 165 | 3.5 | 7.8 | 0.04 | 0.08 | 0.08 | 93 | 1012.5 |
| 20260507004620 | 63 | 134 | 2.6 | 7.8 | 0.04 | 0.08 | 0.08 | 93 | 1012.5 |
| 20260507004520 | 63 | 138 | 3.5 | 7.8 | 0.04 | 0.08 | 0.08 | 93 | 1012.5 |
| 20260507004421 | 63 | 274 | 3.5 | 7.8 | 0.04 | 0.08 | 0.08 | 93 | 1012.4 |
| 20260507004321 | 63 | 136 | 3.5 | 7.8 | 0.04 | 0.08 | 0.08 | 93 | 1012.5 |
| 20260507004221 | 63 | 178 | 3.5 | 11.3 | 0.04 | 0.08 | 0.08 | 93 | 1012.4 |
| 20260507004121 | 63 | 141 | 3.5 | 11.3 | 0.04 | 0.08 | 0.08 | 93 | 1012.4 |
| 20260507004021 | 63 | 165 | 3.5 | 11.3 | 0.05 | 0.08 | 0.08 | 93 | 1012.5 |
| 20260507003920 | 63 | 168 | 4.3 | 11.3 | 0.05 | 0.08 | 0.08 | 93 | 1012.6 |
| 20260507003821 | 63 | 166 | 4.3 | 11.3 | 0.04 | 0.07 | 0.08 | 93 | 1012.6 |
| 20260507003721 | 63 | 77 | 4.3 | 11.3 | 0.04 | 0.07 | 0.07 | 93 | 1012.6 |
| 20260507003621 | 63 | 150 | 4.3 | 11.3 | 0.04 | 0.07 | 0.07 | 93 | 1012.6 |
| 20260507003522 | 63 | 161 | 4.3 | 11.3 | 0.04 | 0.07 | 0.07 | 93 | 1012.5 |
| 20260507003420 | 63 | 173 | 4.3 | 11.3 | 0.04 | 0.07 | 0.07 | 93 | 1012.4 |
| 20260507003322 | 63 | 148 | 4.3 | 11.3 | 0.04 | 0.07 | 0.07 | 93 | 1012.5 |
| 20260507003216 | 63 | 182 | 4.3 | 10.4 | 0.04 | 0.07 | 0.07 | 93 | 1012.5 |
| 20260507003118 | 63 | 162 | 4.3 | 10.4 | 0.04 | 0.07 | 0.07 | 93 | 1012.6 |
| 20260507003017 | 63 | 138 | 4.3 | 10.4 | 0.04 | 0.07 | 0.07 | 93 | 1012.4 |
| 20260507002916 | 63 | 160 | 4.3 | 8.7 | 0.04 | 0.07 | 0.07 | 93 | 1012.5 |
| 20260507002817 | 63 | 183 | 4.3 | 8.7 | 0.04 | 0.07 | 0.07 | 93 | 1012.6 |
| 20260507002716 | 63 | 171 | 4.3 | 8.7 | 0.04 | 0.07 | 0.07 | 93 | 1012.4 |
| 20260507002617 | 63 | 163 | 4.3 | 8.7 | 0.04 | 0.07 | 0.07 | 93 | 1012.5 |
| 20260507002517 | 63 | 158 | 4.3 | 9.6 | 0.04 | 0.07 | 0.07 | 93 | 1012.6 |
| 20260507002417 | 63 | 148 | 4.3 | 9.6 | 0.04 | 0.07 | 0.07 | 93 | 1012.6 |
| 20260507002316 | 63 | 169 | 4.3 | 9.6 | 0.03 | 0.06 | 0.07 | 93 | 1012.5 |
| 20260507002216 | 63 | 139 | 3.5 | 9.6 | 0.03 | 0.06 | 0.06 | 93 | 1012.4 |
| 20260507002116 | 63 | 177 | 3.5 | 9.6 | 0.03 | 0.06 | 0.06 | 93 | 1012.4 |
| 20260507002017 | 63 | 143 | 3.5 | 9.6 | 0.03 | 0.06 | 0.06 | 93 | 1012.4 |
| 20260507001916 | 63 | 187 | 3.5 | 9.6 | 0.03 | 0.06 | 0.06 | 93 | 1012.4 |
| 20260507001816 | 63 | 163 | 3.5 | 9.6 | 0.03 | 0.06 | 0.06 | 93 | 1012.4 |
| 20260507001718 | 63 | 144 | 3.5 | 9.6 | 0.03 | 0.06 | 0.06 | 92 | 1012.7 |
| 20260507001615 | 63 | 161 | 3.5 | 9.6 | 0.03 | 0.06 | 0.06 | 92 | 1012.7 |
| 20260507001515 | 63 | 143 | 3.5 | 9.6 | 0.03 | 0.06 | 0.06 | 93 | 1012.7 |
| 20260507001415 | 63 | 216 | 3.5 | 9.6 | 0.02 | 0.05 | 0.05 | 92 | 1012.7 |
| 20260507001311 | 64 | 80 | 3.5 | 9.6 | 0.02 | 0.05 | 0.05 | 92 | 1012.8 |
| 20260507001208 | 63 | 272 | 4.3 | 9.6 | 0.02 | 0.05 | 0.05 | 92 | 1012.6 |
| 20260507001108 | 63 | 116 | 4.3 | 9.6 | 0.02 | 0.05 | 0.05 | 92 | 1012.5 |
| 20260507001008 | 63 | 171 | 3.5 | 7.8 | 0.02 | 0.05 | 0.05 | 92 | 1012.5 |
| 20260507000909 | 63 | 121 | 3.5 | 7.8 | 0.02 | 0.05 | 0.05 | 92 | 1012.8 |
| 20260507000804 | 63 | 156 | 3.5 | 7.8 | 0.02 | 0.05 | 0.05 | 92 | 1012.6 |
| 20260507000702 | 64 | 165 | 2.6 | 7.8 | 0.02 | 0.05 | 0.05 | 92 | 1012.8 |
| 20260507000602 | 64 | 139 | 2.6 | 7.0 | 0.02 | 0.05 | 0.05 | 92 | 1012.8 |
| 20260507000503 | 64 | 127 | 2.6 | 7.0 | 0.02 | 0.05 | 0.05 | 92 | 1012.8 |
| 20260507000405 | 63 | 156 | 2.6 | 6.1 | 0.02 | 0.05 | 0.05 | 92 | 1012.8 |
| 20260507000253 | 63 | 207 | 2.6 | 7.0 | 0.02 | 0.05 | 0.05 | 92 | 1012.8 |
| 20260507000153 | 63 | 167 | 3.5 | 7.0 | 0.01 | 0.04 | 0.05 | 92 | 1012.8 |
| 20260507000053 | 63 | 169 | 3.5 | 7.0 | 0.01 | 0.04 | 0.04 | 92 | 1012.8 |
| 20260506235952 | 63 | 168 | 3.5 | 7.0 | 0.01 | 0.04 | 0.04 | 92 | 1012.8 |
| 20260506235853 | 63 | 157 | 3.5 | 7.0 | 0.01 | 0.04 | 0.04 | 92 | 1012.8 |
| 20260506235749 | 63 | 167 | 3.5 | 7.0 | 0.01 | 0.04 | 0.04 | 92 | 1012.7 |
| 20260506235648 | 64 | 119 | 3.5 | 7.8 | 0.01 | 0.04 | 0.04 | 92 | 1012.6 |
| 20260506235549 | 63 | 186 | 3.5 | 7.8 | 0.01 | 0.04 | 0.04 | 92 | 1012.7 |
| 20260506235449 | 63 | 168 | 3.5 | 7.8 | 0.01 | 0.04 | 0.04 | 92 | 1012.7 |
| 20260506235346 | 64 | 159 | 3.5 | 7.8 | 0.01 | 0.04 | 0.04 | 92 | 1012.6 |
| 20260506235241 | 64 | 158 | 3.5 | 7.8 | 0.01 | 0.04 | 0.04 | 92 | 1012.5 |
| 20260506235140 | 64 | 167 | 3.5 | 7.8 | 0.01 | 0.04 | 0.04 | 91 | 1012.4 |
| 20260506235041 | 64 | 147 | 3.5 | 7.8 | 0.01 | 0.04 | 0.04 | 91 | 1012.4 |
| 20260506234941 | 64 | 145 | 3.5 | 7.8 | 0.01 | 0.04 | 0.04 | 91 | 1012.5 |
| 20260506234840 | 64 | 172 | 3.5 | 7.8 | 0.01 | 0.04 | 0.04 | 91 | 1012.5 |
| 20260506234733 | 64 | 141 | 3.5 | 7.8 | 0.01 | 0.04 | 0.04 | 91 | 1012.4 |
| 20260506234631 | 64 | 153 | 2.6 | 7.0 | 0.01 | 0.04 | 0.04 | 91 | 1012.5 |
| 20260506234530 | 64 | 167 | 2.6 | 6.1 | 0.01 | 0.04 | 0.04 | 91 | 1012.5 |
| 20260506234431 | 64 | 183 | 2.6 | 6.1 | 0.01 | 0.04 | 0.04 | 91 | 1012.5 |
| 20260506234331 | 64 | 163 | 3.5 | 9.6 | 0.01 | 0.04 | 0.04 | 91 | 1012.2 |
| 20260506234227 | 64 | 152 | 3.5 | 9.6 | 0.01 | 0.04 | 0.04 | 91 | 1012.3 |
| 20260506234124 | 64 | 158 | 3.5 | 9.6 | 0.01 | 0.04 | 0.04 | 91 | 1012.3 |
| 20260506234024 | 64 | 163 | 3.5 | 9.6 | 0.00 | 0.03 | 0.04 | 91 | 1012.3 |
| 20260506233925 | 64 | 165 | 3.5 | 9.6 | 0.00 | 0.03 | 0.03 | 91 | 1012.2 |
| 20260506233824 | 64 | 152 | 4.3 | 9.6 | 0.00 | 0.03 | 0.03 | 91 | 1012.2 |
| 20260506233720 | 64 | 185 | 4.3 | 9.6 | 0.00 | 0.03 | 0.03 | 91 | 1011.8 |
| 20260506233618 | 64 | 150 | 4.3 | 9.6 | 0.00 | 0.03 | 0.03 | 90 | 1011.7 |
| 20260506233519 | 64 | 142 | 4.3 | 9.6 | 0.00 | 0.03 | 0.03 | 90 | 1011.5 |
| 20260506233419 | 64 | 150 | 4.3 | 9.6 | 0.00 | 0.03 | 0.03 | 90 | 1011.6 |
| 20260506233318 | 64 | 146 | 4.3 | 7.8 | 0.00 | 0.03 | 0.03 | 90 | 1011.8 |
| 20260506233211 | 64 | 153 | 4.3 | 7.8 | 0.00 | 0.03 | 0.03 | 90 | 1011.8 |
| 20260506233108 | 64 | 140 | 3.5 | 7.8 | 0.00 | 0.03 | 0.03 | 90 | 1012.0 |
| 20260506233009 | 64 | 169 | 4.3 | 7.8 | 0.00 | 0.03 | 0.03 | 90 | 1011.8 |
| 20260506232908 | 64 | 157 | 3.5 | 7.8 | 0.00 | 0.03 | 0.03 | 90 | 1011.7 |
| 20260506232809 | 64 | 155 | 4.3 | 7.8 | 0.00 | 0.03 | 0.03 | 90 | 1012.0 |
| 20260506232702 | 64 | 163 | 4.3 | 7.8 | 0.00 | 0.03 | 0.03 | 90 | 1012.0 |
| 20260506232603 | 64 | 163 | 4.3 | 7.8 | 0.00 | 0.03 | 0.03 | 90 | 1012.0 |
| 20260506232504 | 64 | 150 | 4.3 | 8.7 | 0.00 | 0.03 | 0.03 | 90 | 1012.0 |
| 20260506232403 | 64 | 135 | 4.3 | 8.7 | 0.00 | 0.03 | 0.03 | 90 | 1012.1 |
| 20260506232306 | 64 | 155 | 4.3 | 8.7 | 0.00 | 0.03 | 0.03 | 90 | 1012.1 |
| 20260506232157 | 64 | 171 | 4.3 | 9.6 | 0.00 | 0.03 | 0.03 | 90 | 1012.2 |
| 20260506232056 | 64 | 159 | 3.5 | 9.6 | 0.00 | 0.03 | 0.03 | 90 | 1012.1 |
| 20260506231958 | 64 | 156 | 4.3 | 9.6 | 0.00 | 0.03 | 0.03 | 90 | 1012.1 |
| 20260506231856 | 64 | 154 | 3.5 | 9.6 | 0.00 | 0.03 | 0.03 | 90 | 1012.1 |
| 20260506231757 | 64 | 141 | 3.5 | 9.6 | 0.00 | 0.03 | 0.03 | 90 | 1012.1 |
| 20260506231648 | 64 | 148 | 3.5 | 9.6 | 0.00 | 0.03 | 0.03 | 90 | 1012.1 |
| 20260506231549 | 64 | 182 | 3.5 | 10.4 | 0.00 | 0.03 | 0.03 | 90 | 1012.2 |
| 20260506231449 | 64 | 167 | 3.5 | 10.4 | 0.00 | 0.03 | 0.03 | 90 | 1012.2 |
| 20260506231349 | 64 | 186 | 3.5 | 10.4 | 0.00 | 0.03 | 0.03 | 90 | 1012.3 |
| 20260506231246 | 65 | 151 | 3.5 | 10.4 | 0.00 | 0.03 | 0.03 | 90 | 1012.3 |
| 20260506231143 | 65 | 170 | 3.5 | 10.4 | 0.00 | 0.03 | 0.03 | 89 | 1012.2 |
| 20260506230941 | 65 | 180 | 3.5 | 10.4 | 0.00 | 0.03 | 0.03 | 89 | 1012.2 |
| 20260506230842 | 65 | 175 | 3.5 | 10.4 | 0.00 | 0.03 | 0.03 | 89 | 1012.2 |
| 20260506230741 | 65 | 169 | 3.5 | 10.4 | 0.00 | 0.03 | 0.03 | 89 | 1012.2 |
| 20260506230641 | 65 | 107 | 3.5 | 10.4 | 0.00 | 0.03 | 0.03 | 89 | 1012.2 |
| 20260506230539 | 65 | 184 | 3.5 | 7.0 | 0.00 | 0.03 | 0.03 | 89 | 1012.2 |
| 20260506230438 | 65 | 161 | 3.5 | 7.0 | 0.00 | 0.03 | 0.03 | 89 | 1012.1 |
| 20260506230336 | 65 | 150 | 3.5 | 7.0 | 0.00 | 0.03 | 0.03 | 89 | 1012.0 |
| 20260506230235 | 65 | 127 | 3.5 | 7.0 | 0.00 | 0.03 | 0.03 | 89 | 1012.1 |
| 20260506230128 | 65 | 181 | 3.5 | 7.0 | 0.00 | 0.03 | 0.03 | 89 | 1012.1 |
| 20260506230026 | 65 | 136 | 3.5 | 7.0 | 0.00 | 0.03 | 0.03 | 89 | 1012.1 |
| 20260506225927 | 65 | 151 | 3.5 | 7.0 | 0.00 | 0.03 | 0.03 | 89 | 1012.1 |
| 20260506225826 | 65 | 148 | 2.6 | 7.0 | 0.00 | 0.03 | 0.03 | 89 | 1012.2 |
| 20260506225725 | 65 | 187 | 2.6 | 7.0 | 0.00 | 0.03 | 0.03 | 89 | 1012.1 |
| 20260506225621 | 65 | 137 | 2.6 | 6.1 | 0.00 | 0.03 | 0.03 | 89 | 1012.2 |
| 20260506225520 | 65 | 164 | 2.6 | 6.1 | 0.00 | 0.03 | 0.03 | 89 | 1012.0 |
| 20260506225420 | 65 | 161 | 1.7 | 6.1 | 0.00 | 0.03 | 0.03 | 88 | 1012.0 |
| 20260506225318 | 65 | 148 | 1.7 | 6.1 | 0.00 | 0.03 | 0.03 | 88 | 1012.0 |
| 20260506225219 | 65 | 152 | 1.7 | 5.2 | 0.00 | 0.03 | 0.03 | 88 | 1012.1 |
| 20260506225118 | 65 | 154 | 1.7 | 5.2 | 0.00 | 0.03 | 0.03 | 88 | 1012.2 |
| 20260506225018 | 65 | 153 | 1.7 | 5.2 | 0.00 | 0.03 | 0.03 | 88 | 1012.3 |
| 20260506224914 | 65 | 124 | 1.7 | 4.3 | 0.00 | 0.03 | 0.03 | 88 | 1012.2 |
| 20260506224814 | 65 | 104 | 0.9 | 4.3 | 0.00 | 0.03 | 0.03 | 88 | 1012.4 |
| 20260506224713 | 65 | 128 | 0.9 | 4.3 | 0.00 | 0.03 | 0.03 | 88 | 1012.4 |
| 20260506224602 | 65 | 96 | 1.7 | 4.3 | 0.00 | 0.03 | 0.03 | 88 | 1012.4 |
| 20260506224504 | 65 | 96 | 1.7 | 5.2 | 0.00 | 0.03 | 0.03 | 88 | 1012.3 |
| 20260506224403 | 65 | 214 | 0.9 | 5.2 | 0.00 | 0.03 | 0.03 | 88 | 1012.3 |
| 20260506224303 | 65 | 204 | 1.7 | 5.2 | 0.00 | 0.03 | 0.03 | 88 | 1012.3 |
| 20260506224203 | 65 | 176 | 1.7 | 5.2 | 0.00 | 0.03 | 0.03 | 88 | 1012.4 |
| 20260506224100 | 65 | 176 | 1.7 | 5.2 | 0.00 | 0.03 | 0.03 | 88 | 1012.4 |
| 20260506224001 | 65 | 177 | 1.7 | 5.2 | 0.00 | 0.03 | 0.03 | 88 | 1012.3 |
| 20260506223859 | 65 | 178 | 1.7 | 5.2 | 0.00 | 0.03 | 0.03 | 88 | 1012.5 |
| 20260506223759 | 65 | 178 | 1.7 | 5.2 | 0.00 | 0.03 | 0.03 | 88 | 1012.5 |
| 20260506223657 | 65 | 178 | 1.7 | 5.2 | 0.00 | 0.03 | 0.03 | 88 | 1012.5 |
| 20260506223552 | 65 | 178 | 0.9 | 5.2 | 0.00 | 0.03 | 0.03 | 88 | 1012.5 |
| 20260506223450 | 65 | 174 | 0.9 | 4.3 | 0.00 | 0.03 | 0.03 | 87 | 1012.4 |
| 20260506223351 | 65 | 174 | 0.9 | 4.3 | 0.00 | 0.03 | 0.03 | 87 | 1012.5 |
| 20260506223251 | 65 | 175 | 0.9 | 4.3 | 0.00 | 0.03 | 0.03 | 87 | 1012.6 |
| 20260506223150 | 65 | 159 | 0.9 | 4.3 | 0.00 | 0.03 | 0.03 | 87 | 1012.7 |
| 20260506223040 | 65 | 159 | 0.9 | 4.3 | 0.00 | 0.03 | 0.03 | 87 | 1012.8 |
| 20260506222942 | 66 | 156 | 0.9 | 3.5 | 0.00 | 0.03 | 0.03 | 87 | 1012.8 |
| 20260506222841 | 66 | 165 | 0.9 | 3.5 | 0.00 | 0.03 | 0.03 | 87 | 1012.9 |
| 20260506222739 | 66 | 165 | 0.9 | 3.5 | 0.00 | 0.03 | 0.03 | 87 | 1012.9 |
| 20260506222640 | 66 | 167 | 0.9 | 3.5 | 0.00 | 0.03 | 0.03 | 87 | 1013.0 |
| 20260506222536 | 66 | 88 | 0.9 | 2.6 | 0.00 | 0.03 | 0.03 | 87 | 1013.0 |
| 20260506222437 | 66 | 88 | 0.9 | 3.5 | 0.00 | 0.03 | 0.03 | 87 | 1013.0 |
| 20260506222338 | 66 | 86 | 0.9 | 3.5 | 0.00 | 0.03 | 0.03 | 87 | 1012.9 |
| 20260506222237 | 66 | 96 | 0.9 | 3.5 | 0.00 | 0.03 | 0.03 | 87 | 1012.9 |
| 20260506222134 | 66 | 132 | 0.9 | 3.5 | 0.00 | 0.03 | 0.03 | 87 | 1012.8 |
| 20260506222035 | 66 | 132 | 0.9 | 4.3 | 0.00 | 0.03 | 0.03 | 87 | 1012.8 |
| 20260506221932 | 66 | 113 | 0.9 | 4.3 | 0.00 | 0.03 | 0.03 | 87 | 1012.8 |
| 20260506221832 | 66 | 75 | 0.9 | 4.3 | 0.00 | 0.03 | 0.03 | 87 | 1013.0 |
| 20260506221731 | 66 | 225 | 0.9 | 4.3 | 0.00 | 0.03 | 0.03 | 87 | 1012.9 |
| 20260506221629 | 66 | 254 | 1.7 | 4.3 | 0.00 | 0.03 | 0.03 | 86 | 1012.9 |
| 20260506221520 | 66 | 253 | 1.7 | 4.3 | 0.00 | 0.03 | 0.03 | 86 | 1012.9 |
| 20260506221419 | 66 | 198 | 1.7 | 4.3 | 0.00 | 0.03 | 0.03 | 86 | 1012.9 |
| 20260506221319 | 66 | 176 | 1.7 | 4.3 | 0.00 | 0.03 | 0.03 | 86 | 1013.0 |
| 20260506221217 | 66 | 177 | 1.7 | 4.3 | 0.00 | 0.03 | 0.03 | 86 | 1013.0 |
| 20260506221119 | 66 | 180 | 1.7 | 4.3 | 0.00 | 0.03 | 0.03 | 86 | 1013.0 |
| 20260506221014 | 66 | 203 | 1.7 | 4.3 | 0.00 | 0.03 | 0.03 | 86 | 1012.9 |
| 20260506220914 | 66 | 203 | 1.7 | 4.3 | 0.00 | 0.03 | 0.03 | 86 | 1013.0 |
| 20260506220814 | 66 | 180 | 1.7 | 4.3 | 0.00 | 0.03 | 0.03 | 86 | 1013.1 |
| 20260506220714 | 66 | 175 | 0.9 | 4.3 | 0.00 | 0.03 | 0.03 | 86 | 1013.1 |
| 20260506220613 | 66 | 145 | 0.9 | 4.3 | 0.00 | 0.03 | 0.03 | 86 | 1013.2 |
| 20260506220509 | 66 | 181 | 0.9 | 4.3 | 0.00 | 0.03 | 0.03 | 86 | 1013.1 |
| 20260506220406 | 66 | 132 | 0.9 | 3.5 | 0.00 | 0.03 | 0.03 | 86 | 1013.1 |
| 20260506220306 | 66 | 53 | 0.0 | 3.5 | 0.00 | 0.03 | 0.03 | 86 | 1013.2 |
| 20260506220208 | 66 | 153 | 0.0 | 2.6 | 0.00 | 0.03 | 0.03 | 86 | 1013.1 |
| 20260506220105 | 66 | 282 | 0.9 | 3.5 | 0.00 | 0.03 | 0.03 | 86 | 1013.0 |
| 20260506215957 | 66 | 349 | 0.9 | 7.0 | 0.00 | 0.03 | 0.03 | 86 | 1013.0 |
| 20260506215856 | 66 | 355 | 0.9 | 7.0 | 0.00 | 0.03 | 0.03 | 86 | 1013.0 |
| 20260506215756 | 66 | 157 | 0.9 | 7.0 | 0.00 | 0.03 | 0.03 | 86 | 1013.0 |
| 20260506215657 | 66 | 181 | 0.9 | 7.0 | 0.00 | 0.03 | 0.03 | 86 | 1012.9 |
| 20260506215555 | 67 | 136 | 1.7 | 7.0 | 0.00 | 0.03 | 0.03 | 86 | 1013.0 |
| 20260506215451 | 67 | 136 | 1.7 | 7.0 | 0.00 | 0.03 | 0.03 | 86 | 1012.8 |
| 20260506215348 | 67 | 140 | 1.7 | 7.0 | 0.00 | 0.03 | 0.03 | 86 | 1012.9 |
| 20260506215249 | 67 | 142 | 1.7 | 7.0 | 0.00 | 0.03 | 0.03 | 85 | 1012.8 |
| 20260506215148 | 67 | 143 | 2.6 | 7.0 | 0.00 | 0.03 | 0.03 | 85 | 1012.9 |
| 20260506215049 | 67 | 186 | 1.7 | 6.1 | 0.00 | 0.03 | 0.03 | 85 | 1012.9 |
| 20260506214949 | 67 | 182 | 1.7 | 6.1 | 0.00 | 0.03 | 0.03 | 85 | 1012.9 |
| 20260506214847 | 67 | 178 | 1.7 | 6.1 | 0.00 | 0.03 | 0.03 | 85 | 1012.9 |
| 20260506214746 | 67 | 65 | 1.7 | 6.1 | 0.00 | 0.03 | 0.03 | 85 | 1013.0 |
| 20260506214645 | 67 | 168 | 1.7 | 6.1 | 0.00 | 0.03 | 0.03 | 85 | 1013.1 |
| 20260506214542 | 67 | 184 | 1.7 | 6.1 | 0.00 | 0.03 | 0.03 | 85 | 1013.0 |
| 20260506214433 | 67 | 135 | 1.7 | 6.1 | 0.00 | 0.03 | 0.03 | 85 | 1013.0 |
| 20260506214332 | 67 | 194 | 0.9 | 5.2 | 0.00 | 0.03 | 0.03 | 85 | 1013.2 |
| 20260506214233 | 67 | 234 | 0.9 | 5.2 | 0.00 | 0.03 | 0.03 | 85 | 1013.1 |
| 20260506214132 | 67 | 159 | 0.9 | 5.2 | 0.00 | 0.03 | 0.03 | 85 | 1013.1 |
| 20260506214032 | 67 | 175 | 0.9 | 3.5 | 0.00 | 0.03 | 0.03 | 85 | 1013.2 |
| 20260506213933 | 67 | 274 | 0.9 | 3.5 | 0.00 | 0.03 | 0.03 | 85 | 1013.1 |
| 20260506213830 | 67 | 265 | 0.9 | 6.1 | 0.00 | 0.03 | 0.03 | 85 | 1013.1 |
| 20260506213729 | 67 | 138 | 0.9 | 6.1 | 0.00 | 0.03 | 0.03 | 85 | 1013.1 |
| 20260506213629 | 67 | 138 | 1.7 | 6.1 | 0.00 | 0.03 | 0.03 | 85 | 1013.0 |
| 20260506213526 | 67 | 138 | 1.7 | 6.1 | 0.00 | 0.03 | 0.03 | 85 | 1012.9 |
| 20260506213424 | 67 | 138 | 1.7 | 6.1 | 0.00 | 0.03 | 0.03 | 85 | 1012.9 |
| 20260506213324 | 67 | 139 | 1.7 | 7.0 | 0.00 | 0.03 | 0.03 | 85 | 1012.9 |
| 20260506213222 | 67 | 139 | 1.7 | 7.0 | 0.00 | 0.03 | 0.03 | 85 | 1012.7 |
| 20260506213123 | 67 | 139 | 1.7 | 7.0 | 0.00 | 0.03 | 0.03 | 85 | 1012.8 |
| 20260506213020 | 67 | 191 | 1.7 | 7.0 | 0.00 | 0.03 | 0.03 | 85 | 1012.8 |
| 20260506212914 | 67 | 165 | 1.7 | 7.0 | 0.00 | 0.03 | 0.03 | 85 | 1012.7 |
| 20260506212814 | 67 | 140 | 1.7 | 7.0 | 0.00 | 0.03 | 0.03 | 85 | 1012.6 |
| 20260506212714 | 67 | 250 | 1.7 | 7.0 | 0.00 | 0.03 | 0.03 | 85 | 1012.7 |
| 20260506212613 | 67 | 256 | 2.6 | 7.0 | 0.00 | 0.03 | 0.03 | 85 | 1012.8 |
| 20260506212511 | 67 | 256 | 2.6 | 7.8 | 0.00 | 0.03 | 0.03 | 85 | 1012.7 |
| 20260506212404 | 67 | 249 | 2.6 | 7.8 | 0.00 | 0.03 | 0.03 | 85 | 1012.7 |
| 20260506212306 | 67 | 121 | 2.6 | 7.8 | 0.00 | 0.03 | 0.03 | 85 | 1012.6 |
| 20260506212205 | 67 | 205 | 2.6 | 7.8 | 0.00 | 0.03 | 0.03 | 85 | 1012.6 |
| 20260506212104 | 67 | 171 | 2.6 | 7.8 | 0.00 | 0.03 | 0.03 | 85 | 1012.6 |
| 20260506212005 | 67 | 175 | 2.6 | 7.8 | 0.00 | 0.03 | 0.03 | 85 | 1012.6 |
| 20260506211859 | 67 | 175 | 2.6 | 7.8 | 0.00 | 0.03 | 0.03 | 85 | 1012.6 |
| 20260506211758 | 67 | 178 | 2.6 | 7.8 | 0.00 | 0.03 | 0.03 | 85 | 1012.6 |
| 20260506211659 | 67 | 121 | 2.6 | 7.8 | 0.00 | 0.03 | 0.03 | 85 | 1012.5 |
| 20260506211558 | 67 | 169 | 2.6 | 7.8 | 0.00 | 0.03 | 0.03 | 86 | 1012.5 |
| 20260506211459 | 67 | 148 | 2.6 | 7.0 | 0.00 | 0.03 | 0.03 | 86 | 1012.5 |
| 20260506211349 | 67 | 126 | 2.6 | 7.8 | 0.00 | 0.03 | 0.03 | 86 | 1012.4 |
| 20260506211249 | 67 | 186 | 2.6 | 7.8 | 0.00 | 0.03 | 0.03 | 86 | 1012.4 |
| 20260506211148 | 67 | 186 | 2.6 | 7.8 | 0.00 | 0.03 | 0.03 | 86 | 1012.4 |
| 20260506211048 | 67 | 141 | 3.5 | 9.6 | 0.00 | 0.03 | 0.03 | 86 | 1012.4 |
| 20260506210949 | 67 | 173 | 3.5 | 10.4 | 0.00 | 0.03 | 0.03 | 86 | 1012.3 |
| 20260506210842 | 67 | 173 | 4.3 | 10.4 | 0.00 | 0.03 | 0.03 | 86 | 1012.3 |
| 20260506210742 | 67 | 176 | 4.3 | 10.4 | 0.00 | 0.03 | 0.03 | 85 | 1012.3 |
| 20260506210643 | 67 | 202 | 4.3 | 10.4 | 0.00 | 0.03 | 0.03 | 85 | 1012.2 |
| 20260506210542 | 67 | 156 | 4.3 | 10.4 | 0.00 | 0.03 | 0.03 | 85 | 1012.0 |
| 20260506210442 | 67 | 129 | 4.3 | 10.4 | 0.00 | 0.03 | 0.03 | 85 | 1012.0 |
| 20260506210339 | 67 | 117 | 3.5 | 10.4 | 0.00 | 0.03 | 0.03 | 85 | 1012.0 |
| 20260506210236 | 67 | 190 | 3.5 | 10.4 | 0.00 | 0.03 | 0.03 | 85 | 1012.0 |
| 20260506210137 | 67 | 155 | 3.5 | 10.4 | 0.00 | 0.03 | 0.03 | 85 | 1012.2 |
| 20260506210036 | 67 | 139 | 2.6 | 10.4 | 0.00 | 0.03 | 0.03 | 85 | 1012.2 |
| 20260506205938 | 67 | 190 | 1.7 | 7.0 | 0.00 | 0.03 | 0.03 | 85 | 1012.1 |
| 20260506205827 | 67 | 184 | 1.7 | 7.0 | 0.00 | 0.03 | 0.03 | 85 | 1012.2 |
| 20260506205725 | 67 | 246 | 0.9 | 7.0 | 0.00 | 0.03 | 0.03 | 85 | 1011.8 |
| 20260506205626 | 67 | 180 | 0.9 | 6.1 | 0.00 | 0.03 | 0.03 | 85 | 1011.8 |
| 20260506205528 | 67 | 151 | 0.0 | 6.1 | 0.00 | 0.03 | 0.03 | 85 | 1011.7 |
| 20260506205426 | 67 | 128 | 0.0 | 0.9 | 0.00 | 0.03 | 0.03 | 85 | 1011.7 |
| 20260506205320 | 68 | 199 | 0.0 | 0.0 | 0.00 | 0.03 | 0.03 | 84 | 1011.7 |
| 20260506205221 | 68 | 165 | 0.0 | 0.0 | 0.00 | 0.03 | 0.03 | 84 | 1011.7 |
| 20260506205121 | 68 | 168 | 0.0 | 0.0 | 0.00 | 0.03 | 0.03 | 84 | 1011.6 |
| 20260506205021 | 68 | 138 | 0.0 | 0.0 | 0.00 | 0.03 | 0.03 | 84 | 1011.6 |
| 20260506204921 | 68 | 132 | 0.0 | 0.0 | 0.00 | 0.03 | 0.03 | 84 | 1011.7 |
| 20260506204815 | 68 | 190 | 0.0 | 0.0 | 0.00 | 0.03 | 0.03 | 84 | 1011.7 |
| 20260506204714 | 68 | 188 | 0.0 | 0.0 | 0.00 | 0.03 | 0.03 | 84 | 1011.5 |
| 20260506204615 | 68 | 164 | 0.0 | 0.0 | 0.00 | 0.03 | 0.03 | 84 | 1011.5 |
| 20260506204514 | 68 | 201 | 0.0 | 0.0 | 0.00 | 0.03 | 0.03 | 84 | 1011.4 |
| 20260506204415 | 68 | 114 | 0.0 | 0.0 | 0.00 | 0.03 | 0.03 | 84 | 1011.6 |
| 20260506204304 | 68 | 165 | 0.0 | 0.0 | 0.00 | 0.03 | 0.03 | 84 | 1011.6 |
| 20260506204205 | 68 | 171 | 0.0 | 0.0 | 0.00 | 0.03 | 0.03 | 84 | 1012.0 |
| 20260506204105 | 68 | 161 | 0.0 | 0.0 | 0.00 | 0.03 | 0.03 | 84 | 1011.8 |
| 20260506204003 | 68 | 165 | 0.0 | 0.0 | 0.00 | 0.03 | 0.03 | 84 | 1011.8 |
| 20260506203904 | 68 | 186 | 0.0 | 0.0 | 0.00 | 0.03 | 0.03 | 85 | 1012.1 |
| 20260506203801 | 68 | 233 | 0.0 | 0.0 | 0.00 | 0.03 | 0.03 | 84 | 1012.1 |
| 20260506203658 | 68 | 186 | 0.0 | 0.0 | 0.00 | 0.03 | 0.03 | 84 | 1012.0 |
| 20260506203559 | 68 | 178 | 0.0 | 0.0 | 0.00 | 0.03 | 0.03 | 84 | 1012.0 |
| 20260506203457 | 68 | 195 | 0.0 | 0.0 | 0.00 | 0.03 | 0.03 | 84 | 1012.1 |
| 20260506203359 | 68 | 146 | 0.0 | 0.0 | 0.00 | 0.03 | 0.03 | 84 | 1012.0 |
| 20260506203252 | 68 | 139 | 0.0 | 0.0 | 0.00 | 0.03 | 0.03 | 84 | 1012.1 |
| 20260506203153 | 68 | 161 | 0.0 | 0.0 | 0.00 | 0.03 | 0.03 | 84 | 1012.1 |
| 20260506203053 | 68 | 155 | 0.0 | 0.0 | 0.00 | 0.03 | 0.03 | 84 | 1012.1 |
| 20260506202952 | 68 | 111 | 0.0 | 0.0 | 0.00 | 0.03 | 0.03 | 84 | 1012.2 |
| 20260506202853 | 68 | 132 | 0.0 | 0.0 | 0.00 | 0.03 | 0.03 | 84 | 1012.3 |
| 20260506202743 | 68 | 245 | 0.0 | 0.0 | 0.00 | 0.03 | 0.03 | 84 | 1012.2 |
| 20260506202642 | 68 | 145 | 0.0 | 0.0 | 0.00 | 0.03 | 0.03 | 84 | 1012.3 |
| 20260506202543 | 68 | 165 | 0.0 | 0.0 | 0.00 | 0.03 | 0.03 | 84 | 1012.4 |
| 20260506202442 | 68 | 142 | 0.0 | 0.0 | 0.00 | 0.03 | 0.03 | 84 | 1012.6 |
| 20260506202343 | 68 | 167 | 0.0 | 0.0 | 0.00 | 0.03 | 0.03 | 84 | 1012.6 |
| 20260506202238 | 68 | 180 | 0.0 | 0.0 | 0.00 | 0.03 | 0.03 | 85 | 1012.6 |
| 20260506202137 | 68 | 215 | 0.0 | 0.0 | 0.00 | 0.03 | 0.03 | 85 | 1012.7 |
| 20260506202035 | 68 | 197 | 0.0 | 0.0 | 0.00 | 0.03 | 0.03 | 85 | 1012.7 |
| 20260506201936 | 68 | 159 | 0.0 | 0.0 | 0.00 | 0.03 | 0.03 | 85 | 1012.7 |
| 20260506201837 | 68 | 192 | 0.0 | 0.0 | 0.00 | 0.03 | 0.03 | 85 | 1012.7 |
| 20260506201730 | 67 | 183 | 0.0 | 0.0 | 0.00 | 0.03 | 0.03 | 85 | 1012.8 |
| 20260506201630 | 67 | 115 | 0.0 | 0.0 | 0.00 | 0.03 | 0.03 | 84 | 1012.8 |
| 20260506201531 | 67 | 179 | 0.0 | 0.0 | 0.00 | 0.03 | 0.03 | 85 | 1012.7 |
| 20260506201430 | 67 | 106 | 0.0 | 0.0 | 0.00 | 0.03 | 0.03 | 85 | 1012.7 |
| 20260506201331 | 67 | 169 | 0.0 | 0.0 | 0.00 | 0.03 | 0.03 | 85 | 1012.7 |
| 20260506201222 | 67 | 168 | 0.0 | 0.0 | 0.00 | 0.03 | 0.03 | 85 | 1012.7 |
| 20260506201121 | 67 | 99 | 0.0 | 0.0 | 0.00 | 0.03 | 0.03 | 85 | 1012.6 |
| 20260506201021 | 67 | 135 | 0.0 | 0.0 | 0.00 | 0.03 | 0.03 | 85 | 1012.6 |
| 20260506200920 | 67 | 189 | 0.0 | 0.0 | 0.00 | 0.03 | 0.03 | 85 | 1012.6 |
| 20260506200821 | 67 | 136 | 0.0 | 0.0 | 0.00 | 0.03 | 0.03 | 85 | 1012.5 |
| 20260506200717 | 67 | 170 | 0.0 | 0.0 | 0.00 | 0.03 | 0.03 | 86 | 1012.6 |
| 20260506200615 | 67 | 178 | 0.0 | 0.0 | 0.00 | 0.03 | 0.03 | 86 | 1012.6 |
| 20260506200513 | 67 | 229 | 0.0 | 0.0 | 0.00 | 0.03 | 0.03 | 86 | 1012.6 |
| 20260506200414 | 67 | 182 | 0.0 | 0.0 | 0.00 | 0.03 | 0.03 | 86 | 1012.7 |
| 20260506200315 | 67 | 171 | 0.0 | 0.0 | 0.00 | 0.03 | 0.03 | 85 | 1012.8 |
| 20260506200211 | 67 | 218 | 0.0 | 0.0 | 0.00 | 0.03 | 0.03 | 85 | 1012.7 |
| 20260506200109 | 67 | 248 | 0.0 | 0.0 | 0.00 | 0.03 | 0.03 | 86 | 1012.7 |
| 20260506200010 | 67 | 175 | 0.0 | 0.0 | 0.00 | 0.03 | 0.03 | 86 | 1012.7 |
| 20260506195907 | 67 | 164 | 0.0 | 0.0 | 0.00 | 0.03 | 0.03 | 86 | 1012.7 |
| 20260506195808 | 67 | 203 | 0.0 | 0.0 | 0.00 | 0.03 | 0.03 | 86 | 1012.8 |
| 20260506195701 | 67 | 218 | 0.0 | 0.0 | 0.00 | 0.03 | 0.03 | 86 | 1012.7 |
| 20260506195558 | 67 | 207 | 0.0 | 0.0 | 0.00 | 0.03 | 0.03 | 85 | 1012.8 |
| 20260506195459 | 67 | 163 | 0.0 | 0.0 | 0.00 | 0.03 | 0.03 | 85 | 1012.8 |
| 20260506195358 | 67 | 271 | 0.0 | 0.0 | 0.00 | 0.03 | 0.03 | 85 | 1012.9 |
| 20260506195258 | 67 | 155 | 0.0 | 0.0 | 0.00 | 0.03 | 0.03 | 86 | 1013.0 |
| 20260506195152 | 67 | 151 | 0.0 | 0.0 | 0.00 | 0.03 | 0.03 | 86 | 1013.1 |
| 20260506195052 | 67 | 156 | 0.0 | 0.0 | 0.00 | 0.03 | 0.03 | 86 | 1013.1 |
| 20260506194953 | 67 | 57 | 0.0 | 0.0 | 0.00 | 0.03 | 0.03 | 86 | 1013.2 |
| 20260506194852 | 67 | 178 | 0.0 | 0.0 | 0.00 | 0.03 | 0.03 | 86 | 1013.1 |
| 20260506194753 | 67 | 166 | 0.0 | 0.0 | 0.00 | 0.03 | 0.03 | 87 | 1013.1 |
| 20260506194649 | 67 | 149 | 0.0 | 0.0 | 0.00 | 0.03 | 0.03 | 86 | 1013.0 |
| 20260506194548 | 67 | 322 | 0.0 | 0.0 | 0.00 | 0.03 | 0.03 | 86 | 1013.0 |
| 20260506194447 | 67 | 130 | 0.0 | 0.0 | 0.00 | 0.03 | 0.03 | 87 | 1013.0 |
| 20260506194349 | 67 | 131 | 0.0 | 0.0 | 0.00 | 0.03 | 0.03 | 86 | 1012.9 |
| 20260506194246 | 67 | 194 | 0.0 | 0.0 | 0.00 | 0.03 | 0.03 | 87 | 1012.9 |
| 20260506194139 | 67 | 192 | 0.0 | 0.0 | 0.00 | 0.03 | 0.03 | 87 | 1012.9 |
| 20260506194036 | 67 | 150 | 0.0 | 0.0 | 0.00 | 0.03 | 0.03 | 87 | 1012.9 |
| 20260506193937 | 67 | 180 | 0.0 | 0.0 | 0.00 | 0.03 | 0.03 | 87 | 1013.0 |
| 20260506193836 | 67 | 142 | 0.0 | 0.0 | 0.00 | 0.03 | 0.03 | 87 | 1012.9 |
| 20260506193737 | 66 | 150 | 0.0 | 0.0 | 0.00 | 0.03 | 0.03 | 87 | 1012.9 |
| 20260506193634 | 67 | 166 | 0.0 | 0.0 | 0.00 | 0.03 | 0.03 | 87 | 1012.9 |
| 20260506193534 | 67 | 147 | 0.0 | 0.0 | 0.00 | 0.03 | 0.03 | 87 | 1012.8 |
| 20260506193436 | 66 | 146 | 0.0 | 0.0 | 0.00 | 0.03 | 0.03 | 87 | 1012.8 |
| 20260506193332 | 66 | 134 | 0.0 | 0.0 | 0.00 | 0.03 | 0.03 | 87 | 1012.8 |
| 20260506193230 | 66 | 180 | 0.0 | 0.0 | 0.00 | 0.03 | 0.03 | 87 | 1012.6 |
| 20260506193129 | 66 | 136 | 0.0 | 0.0 | 0.00 | 0.03 | 0.03 | 87 | 1012.7 |
| 20260506193029 | 66 | 178 | 0.0 | 0.0 | 0.00 | 0.03 | 0.03 | 86 | 1012.6 |
| 20260506192928 | 66 | 202 | 0.0 | 0.0 | 0.00 | 0.03 | 0.03 | 87 | 1012.6 |
| 20260506192826 | 66 | 137 | 0.0 | 0.0 | 0.00 | 0.03 | 0.03 | 86 | 1012.6 |
| 20260506192725 | 66 | 161 | 0.0 | 0.0 | 0.00 | 0.03 | 0.03 | 86 | 1012.6 |
| 20260506192615 | 66 | 165 | 0.0 | 0.0 | 0.00 | 0.03 | 0.03 | 86 | 1012.6 |
| 20260506192514 | 66 | 195 | 0.0 | 0.0 | 0.00 | 0.03 | 0.03 | 86 | 1012.7 |
| 20260506192414 | 66 | 123 | 0.0 | 0.0 | 0.00 | 0.03 | 0.03 | 86 | 1012.6 |
| 20260506192315 | 66 | 24 | 0.0 | 0.0 | 0.00 | 0.03 | 0.03 | 86 | 1012.5 |
| 20260506192215 | 66 | 155 | 0.0 | 0.0 | 0.00 | 0.03 | 0.03 | 86 | 1012.5 |
| 20260506192107 | 66 | 198 | 0.0 | 0.0 | 0.00 | 0.03 | 0.03 | 86 | 1012.5 |
| 20260506192008 | 66 | 150 | 0.0 | 0.0 | 0.00 | 0.03 | 0.03 | 87 | 1012.6 |
| 20260506191909 | 66 | 313 | 0.0 | 0.0 | 0.00 | 0.03 | 0.03 | 86 | 1012.6 |
| 20260506191809 | 66 | 149 | 0.0 | 0.0 | 0.00 | 0.03 | 0.03 | 86 | 1012.5 |
| 20260506191709 | 66 | 180 | 0.0 | 0.0 | 0.00 | 0.03 | 0.03 | 86 | 1012.4 |
| 20260506191603 | 66 | 144 | 0.0 | 0.0 | 0.00 | 0.03 | 0.03 | 86 | 1012.4 |
| 20260506191502 | 66 | 155 | 0.0 | 0.0 | 0.00 | 0.03 | 0.03 | 86 | 1012.4 |
| 20260506191402 | 66 | 127 | 0.0 | 0.0 | 0.00 | 0.03 | 0.03 | 86 | 1012.4 |
| 20260506191302 | 66 | 142 | 0.0 | 0.0 | 0.00 | 0.03 | 0.03 | 85 | 1012.5 |
| 20260506191202 | 66 | 178 | 0.0 | 0.0 | 0.00 | 0.03 | 0.03 | 85 | 1012.4 |
| 20260506191052 | 66 | 149 | 0.0 | 0.0 | 0.00 | 0.03 | 0.03 | 85 | 1012.5 |
| 20260506190953 | 66 | 90 | 0.0 | 0.0 | 0.00 | 0.03 | 0.03 | 86 | 1012.6 |
| 20260506190852 | 66 | 193 | 0.0 | 0.0 | 0.00 | 0.03 | 0.03 | 86 | 1012.7 |
| 20260506190752 | 66 | 173 | 0.0 | 0.0 | 0.00 | 0.03 | 0.03 | 86 | 1012.8 |
| 20260506190653 | 66 | 158 | 0.0 | 0.0 | 0.00 | 0.03 | 0.03 | 86 | 1012.8 |
| 20260506190549 | 66 | 101 | 0.0 | 0.0 | 0.00 | 0.03 | 0.03 | 86 | 1012.9 |
| 20260506190448 | 66 | 139 | 0.0 | 0.0 | 0.00 | 0.03 | 0.03 | 86 | 1012.9 |
| 20260506190347 | 66 | 184 | 0.0 | 0.0 | 0.00 | 0.03 | 0.03 | 87 | 1012.9 |
| 20260506190249 | 66 | 177 | 0.0 | 0.0 | 0.00 | 0.03 | 0.03 | 86 | 1012.9 |
| 20260506190146 | 66 | 221 | 0.0 | 0.0 | 0.00 | 0.03 | 0.03 | 87 | 1012.9 |
| 20260506190043 | 66 | 131 | 0.0 | 0.0 | 0.00 | 0.03 | 0.03 | 87 | 1012.9 |
| 20260506185939 | 66 | 196 | 0.0 | 0.0 | 0.00 | 0.03 | 0.03 | 87 | 1012.9 |
| 20260506185841 | 66 | 157 | 0.0 | 0.0 | 0.00 | 0.03 | 0.03 | 87 | 1012.9 |
| 20260506185741 | 66 | 120 | 0.0 | 0.0 | 0.00 | 0.03 | 0.03 | 87 | 1012.8 |
| 20260506185641 | 66 | 144 | 0.0 | 0.0 | 0.00 | 0.03 | 0.03 | 87 | 1012.6 |
| 20260506185531 | 66 | 166 | 0.0 | 0.0 | 0.00 | 0.03 | 0.03 | 87 | 1012.7 |
| 20260506185430 | 66 | 133 | 0.0 | 0.0 | 0.00 | 0.03 | 0.03 | 87 | 1012.7 |
| 20260506185331 | 66 | 170 | 0.0 | 0.0 | 0.00 | 0.03 | 0.03 | 87 | 1012.7 |
| 20260506185229 | 66 | 146 | 0.0 | 0.0 | 0.00 | 0.03 | 0.03 | 88 | 1012.6 |
| 20260506185131 | 65 | 150 | 0.0 | 0.0 | 0.00 | 0.03 | 0.03 | 88 | 1012.6 |
| 20260506185027 | 65 | 138 | 0.0 | 0.0 | 0.00 | 0.03 | 0.03 | 88 | 1012.6 |
| 20260506184925 | 65 | 171 | 0.0 | 0.0 | 0.00 | 0.03 | 0.03 | 88 | 1012.6 |
| 20260506184824 | 65 | 171 | 0.0 | 0.0 | 0.00 | 0.03 | 0.03 | 87 | 1012.6 |
| 20260506184723 | 65 | 157 | 0.0 | 0.0 | 0.00 | 0.03 | 0.03 | 87 | 1012.6 |
| 20260506184625 | 65 | 158 | 0.0 | 0.9 | 0.00 | 0.03 | 0.03 | 88 | 1012.6 |
| 20260506184519 | 65 | 175 | 0.0 | 0.9 | 0.00 | 0.03 | 0.03 | 88 | 1012.5 |
| 20260506184418 | 65 | 146 | 0.0 | 4.3 | 0.00 | 0.03 | 0.03 | 87 | 1012.5 |
| 20260506184318 | 65 | 192 | 0.0 | 4.3 | 0.00 | 0.03 | 0.03 | 88 | 1012.5 |
| 20260506184217 | 65 | 178 | 0.0 | 4.3 | 0.00 | 0.03 | 0.03 | 88 | 1012.6 |
| 20260506184119 | 65 | 164 | 0.0 | 4.3 | 0.00 | 0.03 | 0.03 | 88 | 1012.4 |
| 20260506184008 | 65 | 131 | 0.0 | 4.3 | 0.00 | 0.03 | 0.03 | 88 | 1012.4 |
| 20260506183908 | 65 | 148 | 0.0 | 4.3 | 0.00 | 0.03 | 0.03 | 88 | 1012.5 |
| 20260506183809 | 65 | 138 | 0.0 | 4.3 | 0.00 | 0.03 | 0.03 | 88 | 1012.5 |
| 20260506183709 | 65 | 210 | 0.0 | 4.3 | 0.00 | 0.03 | 0.03 | 89 | 1012.5 |
| 20260506183608 | 65 | 111 | 0.0 | 4.3 | 0.00 | 0.03 | 0.03 | 89 | 1012.5 |
| 20260506183503 | 65 | 180 | 0.0 | 4.3 | 0.00 | 0.03 | 0.03 | 88 | 1012.5 |
| 20260506183402 | 65 | 168 | 0.0 | 2.6 | 0.00 | 0.03 | 0.03 | 88 | 1012.4 |
| 20260506183303 | 65 | 110 | 0.0 | 2.6 | 0.00 | 0.03 | 0.03 | 88 | 1012.5 |
| 20260506183202 | 65 | 183 | 0.0 | 2.6 | 0.00 | 0.03 | 0.03 | 88 | 1012.5 |
| 20260506183103 | 65 | 169 | 0.0 | 2.6 | 0.00 | 0.03 | 0.03 | 88 | 1012.5 |
| 20260506182958 | 65 | 183 | 0.0 | 2.6 | 0.00 | 0.03 | 0.03 | 88 | 1012.5 |
| 20260506182855 | 65 | 205 | 0.0 | 2.6 | 0.00 | 0.03 | 0.03 | 88 | 1012.6 |
| 20260506182756 | 65 | 146 | 0.0 | 2.6 | 0.00 | 0.03 | 0.03 | 88 | 1012.6 |
| 20260506182656 | 65 | 126 | 0.0 | 2.6 | 0.00 | 0.03 | 0.03 | 88 | 1012.5 |
| 20260506182557 | 65 | 178 | 0.0 | 2.6 | 0.00 | 0.03 | 0.03 | 87 | 1012.7 |
| 20260506182447 | 65 | 187 | 0.0 | 1.7 | 0.00 | 0.03 | 0.03 | 87 | 1012.6 |
| 20260506182346 | 65 | 267 | 0.0 | 1.7 | 0.00 | 0.03 | 0.03 | 87 | 1012.6 |
| 20260506182246 | 65 | 207 | 0.0 | 1.7 | 0.00 | 0.03 | 0.03 | 88 | 1012.5 |
| 20260506182146 | 65 | 159 | 0.0 | 1.7 | 0.00 | 0.03 | 0.03 | 88 | 1012.5 |
| 20260506182046 | 65 | 184 | 0.0 | 1.7 | 0.00 | 0.03 | 0.03 | 88 | 1012.5 |
| 20260506181939 | 65 | 203 | 0.0 | 1.7 | 0.00 | 0.03 | 0.03 | 88 | 1012.6 |
| 20260506181841 | 65 | 136 | 0.0 | 1.7 | 0.00 | 0.03 | 0.03 | 87 | 1012.7 |
| 20260506181739 | 65 | 152 | 0.0 | 0.9 | 0.00 | 0.03 | 0.03 | 87 | 1012.7 |
| 20260506181641 | 65 | 152 | 0.0 | 0.9 | 0.00 | 0.03 | 0.03 | 87 | 1012.7 |
| 20260506181541 | 65 | 146 | 0.0 | 0.9 | 0.00 | 0.03 | 0.03 | 87 | 1012.6 |
| 20260506181433 | 65 | 146 | 0.0 | 0.9 | 0.00 | 0.03 | 0.03 | 87 | 1012.8 |
| 20260506181334 | 65 | 138 | 0.0 | 0.9 | 0.00 | 0.03 | 0.03 | 87 | 1012.8 |
| 20260506181233 | 65 | 163 | 0.0 | 0.9 | 0.00 | 0.03 | 0.03 | 87 | 1012.8 |
| 20260506181135 | 65 | 169 | 0.0 | 0.9 | 0.00 | 0.03 | 0.03 | 87 | 1012.8 |
| 20260506181035 | 65 | 139 | 0.0 | 0.9 | 0.01 | 0.03 | 0.03 | 87 | 1012.8 |
| 20260506180931 | 65 | 139 | 0.0 | 0.9 | 0.01 | 0.03 | 0.03 | 87 | 1012.8 |
| 20260506180827 | 65 | 132 | 0.0 | 0.0 | 0.01 | 0.03 | 0.03 | 87 | 1012.9 |
| 20260506180729 | 65 | 138 | 0.0 | 0.0 | 0.01 | 0.03 | 0.03 | 87 | 1012.9 |
| 20260506180625 | 65 | 131 | 0.0 | 0.0 | 0.01 | 0.03 | 0.03 | 87 | 1012.9 |
| 20260506180524 | 65 | 157 | 0.0 | 0.9 | 0.01 | 0.03 | 0.03 | 87 | 1012.9 |
| 20260506180418 | 65 | 184 | 0.0 | 0.9 | 0.01 | 0.03 | 0.03 | 87 | 1012.9 |
| 20260506180318 | 65 | 209 | 0.0 | 0.9 | 0.01 | 0.03 | 0.03 | 87 | 1013.0 |
| 20260506180219 | 65 | 124 | 0.0 | 0.9 | 0.01 | 0.03 | 0.03 | 86 | 1012.9 |
| 20260506180118 | 65 | 139 | 0.0 | 0.9 | 0.01 | 0.03 | 0.03 | 86 | 1012.8 |
| 20260506180019 | 65 | 134 | 0.0 | 0.9 | 0.01 | 0.03 | 0.03 | 86 | 1012.8 |
| 20260506175914 | 65 | 178 | 0.0 | 0.9 | 0.01 | 0.03 | 0.03 | 87 | 1012.7 |
| 20260506175815 | 65 | 162 | 0.0 | 0.9 | 0.02 | 0.03 | 0.03 | 87 | 1012.8 |
| 20260506175714 | 65 | 138 | 0.0 | 0.9 | 0.02 | 0.03 | 0.03 | 87 | 1012.8 |
| 20260506175613 | 65 | 192 | 0.0 | 0.9 | 0.02 | 0.03 | 0.03 | 87 | 1012.9 |
| 20260506175513 | 65 | 166 | 0.0 | 0.9 | 0.02 | 0.03 | 0.03 | 87 | 1013.1 |
| 20260506175404 | 65 | 172 | 0.0 | 1.7 | 0.02 | 0.03 | 0.03 | 87 | 1013.0 |
| 20260506175306 | 65 | 173 | 0.0 | 3.5 | 0.02 | 0.03 | 0.03 | 87 | 1013.0 |
| 20260506175204 | 65 | 173 | 0.0 | 3.5 | 0.02 | 0.03 | 0.03 | 88 | 1013.1 |
| 20260506175105 | 65 | 221 | 0.0 | 3.5 | 0.02 | 0.03 | 0.03 | 88 | 1012.8 |
| 20260506175004 | 65 | 180 | 0.9 | 5.2 | 0.02 | 0.03 | 0.03 | 88 | 1012.8 |
| 20260506174904 | 65 | 123 | 1.7 | 7.0 | 0.02 | 0.03 | 0.03 | 89 | 1012.9 |
| 20260506174805 | 65 | 130 | 1.7 | 7.8 | 0.02 | 0.03 | 0.03 | 90 | 1012.9 |
| 20260506174703 | 65 | 158 | 1.7 | 7.8 | 0.02 | 0.03 | 0.03 | 90 | 1013.0 |
| 20260506174605 | 65 | 130 | 2.6 | 7.8 | 0.02 | 0.03 | 0.03 | 90 | 1012.9 |
| 20260506174504 | 64 | 198 | 3.5 | 7.8 | 0.02 | 0.03 | 0.03 | 90 | 1012.9 |
| 20260506174405 | 64 | 209 | 3.5 | 7.8 | 0.02 | 0.03 | 0.03 | 89 | 1012.9 |
| 20260506174304 | 64 | 129 | 4.3 | 7.8 | 0.02 | 0.03 | 0.03 | 90 | 1012.9 |
| 20260506174203 | 64 | 143 | 4.3 | 7.8 | 0.02 | 0.03 | 0.03 | 90 | 1012.9 |
| 20260506174104 | 64 | 124 | 4.3 | 7.8 | 0.02 | 0.03 | 0.03 | 90 | 1012.8 |
| 20260506174004 | 63 | 167 | 4.3 | 7.8 | 0.02 | 0.03 | 0.03 | 91 | 1012.8 |
| 20260506173904 | 63 | 159 | 3.5 | 7.8 | 0.02 | 0.03 | 0.03 | 91 | 1012.8 |
| 20260506173805 | 63 | 171 | 3.5 | 7.8 | 0.02 | 0.03 | 0.03 | 91 | 1012.6 |
| 20260506173700 | 63 | 159 | 3.5 | 7.8 | 0.02 | 0.03 | 0.03 | 91 | 1012.7 |
| 20260506173559 | 62 | 165 | 3.5 | 7.8 | 0.02 | 0.03 | 0.03 | 91 | 1012.8 |
| 20260506173459 | 62 | 96 | 3.5 | 7.8 | 0.03 | 0.03 | 0.03 | 91 | 1012.8 |
| 20260506173400 | 62 | 171 | 2.6 | 8.7 | 0.03 | 0.03 | 0.03 | 91 | 1012.9 |
| 20260506173300 | 62 | 115 | 2.6 | 8.7 | 0.03 | 0.03 | 0.03 | 91 | 1013.0 |
| 20260506173200 | 62 | 85 | 2.6 | 8.7 | 0.03 | 0.03 | 0.03 | 91 | 1013.1 |
| 20260506173101 | 62 | 150 | 3.5 | 8.7 | 0.03 | 0.03 | 0.03 | 91 | 1013.2 |
| 20260506172959 | 62 | 167 | 3.5 | 9.6 | 0.03 | 0.03 | 0.03 | 91 | 1013.2 |
| 20260506172901 | 62 | 155 | 3.5 | 9.6 | 0.03 | 0.03 | 0.03 | 91 | 1013.2 |
| 20260506172800 | 62 | 157 | 3.5 | 9.6 | 0.03 | 0.03 | 0.03 | 91 | 1013.3 |
| 20260506172701 | 62 | 166 | 3.5 | 9.6 | 0.03 | 0.03 | 0.03 | 90 | 1013.4 |
| 20260506172600 | 62 | 238 | 4.3 | 9.6 | 0.03 | 0.03 | 0.03 | 91 | 1013.4 |
| 20260506172500 | 61 | 154 | 3.5 | 9.6 | 0.03 | 0.03 | 0.03 | 91 | 1013.5 |
| 20260506172400 | 61 | 155 | 3.5 | 9.6 | 0.03 | 0.03 | 0.03 | 91 | 1013.7 |
| 20260506172301 | 61 | 143 | 3.5 | 9.6 | 0.03 | 0.03 | 0.03 | 90 | 1013.7 |
| 20260506172201 | 61 | 207 | 3.5 | 9.6 | 0.03 | 0.03 | 0.03 | 90 | 1013.7 |
| 20260506172101 | 61 | 287 | 3.5 | 9.6 | 0.03 | 0.03 | 0.03 | 90 | 1013.8 |
| 20260506172001 | 61 | 175 | 4.3 | 9.6 | 0.03 | 0.03 | 0.03 | 90 | 1013.9 |
| 20260506171900 | 61 | 174 | 3.5 | 9.6 | 0.03 | 0.03 | 0.03 | 90 | 1013.8 |
| 20260506171800 | 61 | 133 | 3.5 | 9.6 | 0.03 | 0.03 | 0.03 | 90 | 1013.9 |
| 20260506171659 | 61 | 155 | 3.5 | 9.6 | 0.03 | 0.03 | 0.03 | 90 | 1013.9 |
| 20260506171557 | 61 | 144 | 3.5 | 9.6 | 0.03 | 0.03 | 0.03 | 90 | 1014.0 |
| 20260506171458 | 61 | 143 | 4.3 | 9.6 | 0.03 | 0.03 | 0.03 | 90 | 1014.1 |
| 20260506171359 | 61 | 162 | 4.3 | 9.6 | 0.03 | 0.03 | 0.03 | 90 | 1014.1 |
| 20260506171258 | 61 | 160 | 4.3 | 10.4 | 0.03 | 0.03 | 0.03 | 90 | 1014.2 |
| 20260506171157 | 61 | 140 | 4.3 | 10.4 | 0.03 | 0.03 | 0.03 | 90 | 1014.2 |
| 20260506171057 | 61 | 132 | 4.3 | 11.3 | 0.02 | 0.02 | 0.03 | 90 | 1014.3 |
| 20260506170958 | 61 | 185 | 3.5 | 11.3 | 0.02 | 0.02 | 0.02 | 90 | 1014.3 |
| 20260506170857 | 61 | 185 | 3.5 | 11.3 | 0.02 | 0.02 | 0.02 | 90 | 1014.4 |
| 20260506170759 | 61 | 148 | 3.5 | 11.3 | 0.02 | 0.02 | 0.02 | 90 | 1014.5 |
| 20260506170656 | 61 | 148 | 3.5 | 11.3 | 0.02 | 0.02 | 0.02 | 90 | 1014.5 |
| 20260506170556 | 61 | 105 | 3.5 | 11.3 | 0.02 | 0.02 | 0.02 | 90 | 1014.6 |
| 20260506170456 | 61 | 167 | 3.5 | 11.3 | 0.02 | 0.02 | 0.02 | 89 | 1014.6 |
| 20260506170357 | 61 | 200 | 2.6 | 11.3 | 0.02 | 0.02 | 0.02 | 89 | 1014.5 |
| 20260506170249 | 61 | 150 | 2.6 | 11.3 | 0.02 | 0.02 | 0.02 | 89 | 1014.4 |
| 20260506170149 | 62 | 165 | 2.6 | 11.3 | 0.02 | 0.02 | 0.02 | 90 | 1014.4 |
| 20260506170050 | 62 | 135 | 2.6 | 6.1 | 0.02 | 0.02 | 0.02 | 90 | 1014.4 |
| 20260506165949 | 62 | 159 | 2.6 | 6.1 | 0.02 | 0.02 | 0.02 | 90 | 1014.4 |
| 20260506165851 | 62 | 182 | 2.6 | 6.1 | 0.02 | 0.02 | 0.02 | 90 | 1014.4 |
| 20260506165745 | 62 | 215 | 2.6 | 6.1 | 0.01 | 0.01 | 0.01 | 90 | 1014.4 |
| 20260506165658 | 62 | 196 | 2.6 | 8.7 | 0.01 | 0.01 | 0.01 | 90 | 1014.3 |
| 20260506165545 | 62 | 126 | 2.6 | 9.6 | 0.01 | 0.01 | 0.01 | 90 | 1014.4 |
| 20260506165443 | 62 | 145 | 3.5 | 9.6 | 0.01 | 0.01 | 0.01 | 90 | 1014.3 |
| 20260506165345 | 62 | 180 | 3.5 | 9.6 | 0.01 | 0.01 | 0.01 | 90 | 1014.4 |
| 20260506165238 | 61 | 147 | 3.5 | 9.6 | 0.01 | 0.01 | 0.01 | 90 | 1014.4 |
| 20260506165138 | 61 | 173 | 3.5 | 9.6 | 0.01 | 0.01 | 0.01 | 90 | 1014.3 |
| 20260506165039 | 61 | 167 | 3.5 | 9.6 | 0.01 | 0.01 | 0.01 | 90 | 1014.3 |
| 20260506164936 | 61 | 212 | 3.5 | 9.6 | 0.01 | 0.01 | 0.01 | 90 | 1014.3 |
| 20260506164834 | 61 | 173 | 3.5 | 9.6 | 0.01 | 0.01 | 0.01 | 90 | 1014.3 |
| 20260506164729 | 61 | 166 | 3.5 | 9.6 | 0.01 | 0.01 | 0.01 | 90 | 1014.3 |
| 20260506164628 | 61 | 171 | 2.6 | 9.6 | 0.01 | 0.01 | 0.01 | 90 | 1014.3 |
| 20260506164529 | 61 | 185 | 2.6 | 8.7 | 0.01 | 0.01 | 0.01 | 89 | 1014.3 |
| 20260506164427 | 61 | 142 | 2.6 | 8.7 | 0.01 | 0.01 | 0.01 | 89 | 1014.4 |
| 20260506164329 | 61 | 138 | 2.6 | 8.7 | 0.01 | 0.01 | 0.01 | 89 | 1014.4 |
| 20260506164228 | 61 | 146 | 2.6 | 8.7 | 0.01 | 0.01 | 0.01 | 89 | 1014.4 |
| 20260506164128 | 61 | 164 | 2.6 | 8.7 | 0.01 | 0.01 | 0.01 | 89 | 1014.5 |
| 20260506164028 | 61 | 196 | 2.6 | 8.7 | 0.01 | 0.01 | 0.01 | 89 | 1014.5 |
| 20260506163927 | 61 | 201 | 2.6 | 8.7 | 0.01 | 0.01 | 0.01 | 89 | 1014.6 |
| 20260506163828 | 61 | 149 | 2.6 | 8.7 | 0.01 | 0.01 | 0.01 | 89 | 1014.5 |
| 20260506163729 | 61 | 96 | 2.6 | 8.7 | 0.01 | 0.01 | 0.01 | 89 | 1014.5 |
| 20260506163626 | 61 | 269 | 2.6 | 8.7 | 0.01 | 0.01 | 0.01 | 88 | 1014.5 |
| 20260506163526 | 61 | 111 | 2.6 | 8.7 | 0.00 | 0.00 | 0.01 | 89 | 1014.5 |
| 20260506163425 | 61 | 142 | 2.6 | 8.7 | 0.00 | 0.00 | 0.00 | 88 | 1014.6 |
| 20260506163327 | 61 | 140 | 2.6 | 8.7 | 0.00 | 0.00 | 0.00 | 88 | 1014.6 |
| 20260506163227 | 61 | 163 | 2.6 | 8.7 | 0.00 | 0.00 | 0.00 | 88 | 1014.6 |
| 20260506163127 | 61 | 144 | 2.6 | 8.7 | 0.00 | 0.00 | 0.00 | 88 | 1014.7 |
| 20260506163023 | 61 | 203 | 2.6 | 8.7 | 0.00 | 0.00 | 0.00 | 88 | 1014.6 |
| 20260506162925 | 61 | 184 | 2.6 | 8.7 | 0.00 | 0.00 | 0.00 | 87 | 1014.7 |
| 20260506162824 | 61 | 32 | 2.6 | 8.7 | 0.00 | 0.00 | 0.00 | 88 | 1014.6 |
| 20260506162724 | 61 | 159 | 2.6 | 8.7 | 0.00 | 0.00 | 0.00 | 87 | 1014.6 |
| 20260506162625 | 61 | 167 | 2.6 | 8.7 | 0.00 | 0.00 | 0.00 | 87 | 1014.7 |
| 20260506162524 | 61 | 148 | 1.7 | 6.1 | 0.00 | 0.00 | 0.00 | 88 | 1014.7 |
| 20260506162425 | 61 | 78 | 1.7 | 6.1 | 0.00 | 0.00 | 0.00 | 87 | 1014.8 |
| 20260506162324 | 61 | 111 | 1.7 | 6.1 | 0.00 | 0.00 | 0.00 | 87 | 1015.0 |
| 20260506162224 | 61 | 77 | 1.7 | 6.1 | 0.00 | 0.00 | 0.00 | 87 | 1014.8 |
| 20260506162124 | 62 | 184 | 1.7 | 6.1 | 0.00 | 0.00 | 0.00 | 87 | 1015.0 |
| 20260506162023 | 62 | 176 | 1.7 | 7.0 | 0.00 | 0.00 | 0.00 | 87 | 1015.0 |
| 20260506161925 | 62 | 110 | 1.7 | 7.0 | 0.00 | 0.00 | 0.00 | 87 | 1015.0 |
| 20260506161821 | 62 | 110 | 1.7 | 7.0 | 0.00 | 0.00 | 0.00 | 87 | 1015.0 |
| 20260506161718 | 61 | 138 | 1.7 | 7.0 | 0.00 | 0.00 | 0.00 | 87 | 1015.0 |
| 20260506161619 | 61 | 138 | 1.7 | 7.0 | 0.00 | 0.00 | 0.00 | 87 | 1014.8 |
| 20260506161519 | 61 | 130 | 1.7 | 7.0 | 0.00 | 0.00 | 0.00 | 87 | 1015.0 |
| 20260506161418 | 61 | 200 | 1.7 | 7.0 | 0.00 | 0.00 | 0.00 | 87 | 1014.9 |
| 20260506161313 | 61 | 146 | 1.7 | 7.0 | 0.00 | 0.00 | 0.00 | 87 | 1014.9 |
| 20260506161213 | 61 | 159 | 1.7 | 7.0 | 0.00 | 0.00 | 0.00 | 87 | 1014.8 |
| 20260506161112 | 61 | 67 | 0.9 | 4.3 | 0.00 | 0.00 | 0.00 | 87 | 1014.9 |
| 20260506161012 | 61 | 135 | 0.9 | 4.3 | 0.00 | 0.00 | 0.00 | 87 | 1014.9 |
| 20260506160912 | 61 | 150 | 0.9 | 4.3 | 0.00 | 0.00 | 0.00 | 87 | 1014.8 |
| 20260506160812 | 61 | 150 | 0.9 | 6.1 | 0.00 | 0.00 | 0.00 | 88 | 1014.7 |
| 20260506160713 | 61 | 145 | 0.9 | 6.1 | 0.00 | 0.00 | 0.00 | 88 | 1014.7 |
| 20260506160611 | 61 | 145 | 0.9 | 6.1 | 0.00 | 0.00 | 0.00 | 88 | 1014.6 |
| 20260506160513 | 61 | 176 | 0.9 | 6.1 | 0.00 | 0.00 | 0.00 | 87 | 1014.6 |
| 20260506160409 | 61 | 171 | 0.9 | 6.1 | 0.00 | 0.00 | 0.00 | 87 | 1014.5 |
| 20260506160309 | 61 | 94 | 0.9 | 6.1 | 0.00 | 0.00 | 0.00 | 87 | 1014.6 |
| 20260506160209 | 61 | 94 | 1.7 | 6.1 | 0.00 | 0.00 | 0.00 | 87 | 1014.6 |
| 20260506160110 | 61 | 92 | 1.7 | 6.1 | 0.00 | 0.00 | 0.00 | 87 | 1014.7 |
| 20260506160010 | 61 | 94 | 1.7 | 7.8 | 0.00 | 0.00 | 0.00 | 87 | 1014.7 |
| 20260506155911 | 61 | 86 | 2.6 | 7.8 | 0.00 | 0.00 | 0.00 | 87 | 1014.7 |
| 20260506155807 | 60 | 104 | 2.6 | 7.8 | 0.00 | 0.00 | 0.00 | 88 | 1014.7 |
| 20260506155708 | 61 | 236 | 2.6 | 7.8 | 0.00 | 0.00 | 0.00 | 87 | 1014.5 |
| 20260506155609 | 60 | 245 | 3.5 | 7.8 | 0.00 | 0.00 | 0.00 | 87 | 1014.5 |
| 20260506155507 | 61 | 258 | 3.5 | 7.8 | 0.00 | 0.00 | 0.00 | 87 | 1014.5 |
| 20260506155407 | 60 | 196 | 3.5 | 7.8 | 0.00 | 0.00 | 0.00 | 87 | 1014.4 |
| 20260506155307 | 60 | 175 | 3.5 | 7.8 | 0.00 | 0.00 | 0.00 | 88 | 1014.4 |
| 20260506155209 | 60 | 120 | 3.5 | 7.8 | 0.00 | 0.00 | 0.00 | 88 | 1014.4 |
| 20260506155107 | 60 | 185 | 3.5 | 7.8 | 0.00 | 0.00 | 0.00 | 88 | 1014.2 |
| 20260506155009 | 60 | 69 | 3.5 | 7.8 | 0.00 | 0.00 | 0.00 | 88 | 1014.1 |
| 20260506154903 | 60 | 118 | 3.5 | 7.8 | 0.00 | 0.00 | 0.00 | 88 | 1014.2 |
| 20260506154804 | 60 | 166 | 2.6 | 7.8 | 0.00 | 0.00 | 0.00 | 88 | 1014.2 |
| 20260506154703 | 60 | 163 | 2.6 | 7.8 | 0.00 | 0.00 | 0.00 | 88 | 1014.2 |
| 20260506154605 | 60 | 126 | 1.7 | 7.8 | 0.00 | 0.00 | 0.00 | 88 | 1014.3 |
| 20260506154504 | 60 | 172 | 1.7 | 7.8 | 0.00 | 0.00 | 0.00 | 88 | 1014.3 |
| 20260506154403 | 60 | 136 | 1.7 | 6.1 | 0.00 | 0.00 | 0.00 | 88 | 1014.3 |
| 20260506154303 | 60 | 147 | 1.7 | 8.7 | 0.00 | 0.00 | 0.00 | 88 | 1014.5 |
| 20260506154203 | 60 | 134 | 1.7 | 8.7 | 0.00 | 0.00 | 0.00 | 88 | 1014.4 |
| 20260506154104 | 60 | 94 | 1.7 | 8.7 | 0.00 | 0.00 | 0.00 | 87 | 1014.4 |
| 20260506154005 | 60 | 167 | 1.7 | 8.7 | 0.00 | 0.00 | 0.00 | 87 | 1014.5 |
| 20260506153904 | 60 | 170 | 1.7 | 8.7 | 0.00 | 0.00 | 0.00 | 87 | 1014.4 |
| 20260506153803 | 60 | 170 | 2.6 | 8.7 | 0.00 | 0.00 | 0.00 | 87 | 1014.2 |
| 20260506153703 | 60 | 169 | 2.6 | 8.7 | 0.00 | 0.00 | 0.00 | 87 | 1014.2 |
| 20260506153605 | 60 | 170 | 2.6 | 8.7 | 0.00 | 0.00 | 0.00 | 87 | 1014.1 |
| 20260506153504 | 60 | 168 | 2.6 | 8.7 | 0.00 | 0.00 | 0.00 | 87 | 1014.1 |
| 20260506153404 | 60 | 155 | 2.6 | 8.7 | 0.00 | 0.00 | 0.00 | 87 | 1014.0 |
| 20260506153304 | 60 | 124 | 2.6 | 4.3 | 0.00 | 0.00 | 0.00 | 87 | 1013.9 |
| 20260506153205 | 61 | 128 | 2.6 | 7.0 | 0.00 | 0.00 | 0.00 | 87 | 1013.8 |
| 20260506153104 | 61 | 145 | 2.6 | 7.0 | 0.00 | 0.00 | 0.00 | 87 | 1013.9 |
| 20260506153005 | 61 | 173 | 2.6 | 7.0 | 0.00 | 0.00 | 0.00 | 87 | 1013.9 |
| 20260506152904 | 61 | 132 | 2.6 | 7.0 | 0.00 | 0.00 | 0.00 | 87 | 1014.0 |
| 20260506152803 | 61 | 163 | 1.7 | 7.0 | 0.00 | 0.00 | 0.00 | 87 | 1014.0 |
| 20260506152704 | 61 | 150 | 2.6 | 7.0 | 0.00 | 0.00 | 0.00 | 87 | 1014.2 |
| 20260506152603 | 61 | 150 | 2.6 | 8.7 | 0.00 | 0.00 | 0.00 | 87 | 1014.1 |
| 20260506152504 | 61 | 150 | 2.6 | 8.7 | 0.00 | 0.00 | 0.00 | 86 | 1014.0 |
| 20260506152404 | 61 | 146 | 2.6 | 8.7 | 0.00 | 0.00 | 0.00 | 86 | 1014.1 |
| 20260506152305 | 61 | 147 | 2.6 | 8.7 | 0.00 | 0.00 | 0.00 | 87 | 1014.2 |
| 20260506152203 | 61 | 162 | 2.6 | 8.7 | 0.00 | 0.00 | 0.00 | 87 | 1014.3 |
| 20260506152104 | 61 | 232 | 2.6 | 8.7 | 0.00 | 0.00 | 0.00 | 87 | 1014.2 |
| 20260506152004 | 61 | 168 | 1.7 | 8.7 | 0.00 | 0.00 | 0.00 | 86 | 1014.3 |
| 20260506151903 | 61 | 172 | 1.7 | 8.7 | 0.00 | 0.00 | 0.00 | 86 | 1014.3 |
| 20260506151805 | 61 | 173 | 1.7 | 8.7 | 0.00 | 0.00 | 0.00 | 86 | 1014.4 |
| 20260506151704 | 61 | 150 | 0.9 | 6.1 | 0.00 | 0.00 | 0.00 | 86 | 1014.2 |
| 20260506151600 | 61 | 298 | 0.9 | 5.2 | 0.00 | 0.00 | 0.00 | 87 | 1014.3 |
| 20260506151500 | 61 | 173 | 0.9 | 4.3 | 0.00 | 0.00 | 0.00 | 87 | 1014.3 |
| 20260506151359 | 61 | 186 | 0.9 | 4.3 | 0.00 | 0.00 | 0.00 | 87 | 1014.2 |
| 20260506151301 | 61 | 197 | 0.9 | 4.3 | 0.00 | 0.00 | 0.00 | 87 | 1014.1 |
| 20260506151200 | 61 | 155 | 0.9 | 5.2 | 0.00 | 0.00 | 0.00 | 86 | 1014.2 |
| 20260506151059 | 61 | 155 | 0.9 | 5.2 | 0.00 | 0.00 | 0.00 | 86 | 1014.0 |
| 20260506151000 | 61 | 155 | 1.7 | 5.2 | 0.00 | 0.00 | 0.00 | 86 | 1013.7 |
| 20260506150900 | 61 | 155 | 1.7 | 5.2 | 0.00 | 0.00 | 0.00 | 86 | 1013.5 |
| 20260506150759 | 61 | 148 | 1.7 | 5.2 | 0.00 | 0.00 | 0.00 | 86 | 1013.5 |
| 20260506150701 | 61 | 140 | 1.7 | 6.1 | 0.00 | 0.00 | 0.00 | 86 | 1013.3 |
| 20260506150600 | 61 | 140 | 1.7 | 6.1 | 0.00 | 0.00 | 0.00 | 86 | 1013.4 |
| 20260506150500 | 61 | 140 | 2.6 | 6.1 | 0.00 | 0.00 | 0.00 | 86 | 1013.4 |
| 20260506150401 | 61 | 140 | 2.6 | 6.1 | 0.00 | 0.00 | 0.00 | 86 | 1013.3 |
| 20260506150303 | 61 | 138 | 2.6 | 6.1 | 0.00 | 0.00 | 0.00 | 86 | 1013.3 |
| 20260506150200 | 61 | 153 | 2.6 | 6.1 | 0.00 | 0.00 | 0.00 | 86 | 1013.3 |
| 20260506150100 | 61 | 154 | 2.6 | 6.1 | 0.00 | 0.00 | 0.00 | 86 | 1013.3 |
| 20260506150001 | 61 | 153 | 2.6 | 6.1 | 0.00 | 0.00 | 0.00 | 87 | 1013.3 |
| 20260506145901 | 61 | 136 | 2.6 | 6.1 | 0.00 | 0.00 | 0.00 | 87 | 1013.3 |
| 20260506145759 | 61 | 174 | 2.6 | 6.1 | 0.00 | 0.00 | 0.00 | 87 | 1013.4 |
| 20260506145659 | 61 | 154 | 2.6 | 6.1 | 0.00 | 0.00 | 0.00 | 87 | 1013.4 |
| 20260506145600 | 61 | 178 | 2.6 | 6.1 | 0.00 | 0.00 | 0.00 | 87 | 1013.3 |
| 20260506145501 | 61 | 144 | 1.7 | 5.2 | 0.00 | 0.00 | 0.00 | 87 | 1013.3 |
| 20260506145400 | 61 | 136 | 1.7 | 4.3 | 0.00 | 0.00 | 0.00 | 87 | 1013.3 |
| 20260506145259 | 60 | 134 | 1.7 | 4.3 | 0.00 | 0.00 | 0.00 | 87 | 1013.2 |
| 20260506145159 | 60 | 134 | 1.7 | 4.3 | 0.00 | 0.00 | 0.00 | 88 | 1013.2 |
| 20260506145100 | 60 | 134 | 1.7 | 4.3 | 0.00 | 0.00 | 0.00 | 87 | 1013.2 |
| 20260506144952 | 60 | 129 | 1.7 | 4.3 | 0.00 | 0.00 | 0.00 | 87 | 1013.3 |
| 20260506144852 | 60 | 137 | 1.7 | 4.3 | 0.00 | 0.00 | 0.00 | 87 | 1013.3 |
| 20260506144752 | 60 | 144 | 1.7 | 4.3 | 0.00 | 0.00 | 0.00 | 87 | 1013.4 |
| 20260506144651 | 60 | 173 | 1.7 | 4.3 | 0.00 | 0.00 | 0.00 | 87 | 1013.4 |
| 20260506144553 | 60 | 122 | 1.7 | 3.5 | 0.00 | 0.00 | 0.00 | 87 | 1013.4 |
| 20260506144453 | 60 | 122 | 1.7 | 4.3 | 0.00 | 0.00 | 0.00 | 87 | 1013.4 |
| 20260506144351 | 60 | 122 | 1.7 | 4.3 | 0.00 | 0.00 | 0.00 | 87 | 1013.4 |
| 20260506144252 | 60 | 115 | 1.7 | 4.3 | 0.00 | 0.00 | 0.00 | 87 | 1013.4 |
| 20260506144151 | 60 | 120 | 1.7 | 4.3 | 0.00 | 0.00 | 0.00 | 87 | 1013.5 |
| 20260506144052 | 60 | 118 | 1.7 | 4.3 | 0.00 | 0.00 | 0.00 | 87 | 1013.5 |
| 20260506143951 | 60 | 119 | 1.7 | 4.3 | 0.00 | 0.00 | 0.00 | 86 | 1013.4 |
| 20260506143852 | 60 | 138 | 0.9 | 4.3 | 0.00 | 0.00 | 0.00 | 86 | 1013.4 |
| 20260506143751 | 60 | 138 | 0.9 | 4.3 | 0.00 | 0.00 | 0.00 | 86 | 1013.5 |
| 20260506143652 | 60 | 131 | 1.7 | 4.3 | 0.00 | 0.00 | 0.00 | 86 | 1013.7 |
| 20260506143552 | 60 | 130 | 1.7 | 4.3 | 0.00 | 0.00 | 0.00 | 86 | 1013.5 |
| 20260506143452 | 60 | 144 | 1.7 | 4.3 | 0.00 | 0.00 | 0.00 | 86 | 1013.7 |
| 20260506143352 | 60 | 144 | 1.7 | 4.3 | 0.00 | 0.00 | 0.00 | 86 | 1013.5 |
| 20260506143252 | 60 | 101 | 1.7 | 4.3 | 0.00 | 0.00 | 0.00 | 85 | 1013.5 |
| 20260506143151 | 60 | 99 | 1.7 | 4.3 | 0.00 | 0.00 | 0.00 | 85 | 1013.4 |
| 20260506143051 | 60 | 88 | 1.7 | 4.3 | 0.00 | 0.00 | 0.00 | 85 | 1013.5 |
| 20260506142951 | 60 | 14 | 1.7 | 4.3 | 0.00 | 0.00 | 0.00 | 85 | 1013.5 |
| 20260506142853 | 60 | 175 | 2.6 | 4.3 | 0.00 | 0.00 | 0.00 | 85 | 1013.4 |
| 20260506142751 | 60 | 175 | 2.6 | 5.2 | 0.00 | 0.00 | 0.00 | 85 | 1013.5 |
| 20260506142652 | 60 | 156 | 2.6 | 5.2 | 0.00 | 0.00 | 0.00 | 85 | 1013.4 |
| 20260506142551 | 60 | 131 | 2.6 | 6.1 | 0.00 | 0.00 | 0.00 | 85 | 1013.4 |
| 20260506142452 | 60 | 132 | 2.6 | 6.1 | 0.00 | 0.00 | 0.00 | 85 | 1013.4 |
| 20260506142352 | 60 | 144 | 2.6 | 6.1 | 0.00 | 0.00 | 0.00 | 85 | 1013.5 |
| 20260506142251 | 60 | 109 | 2.6 | 6.1 | 0.00 | 0.00 | 0.00 | 85 | 1013.5 |
| 20260506142151 | 60 | 138 | 2.6 | 6.1 | 0.00 | 0.00 | 0.00 | 85 | 1013.5 |
| 20260506142053 | 60 | 136 | 2.6 | 6.1 | 0.00 | 0.00 | 0.00 | 86 | 1013.5 |
| 20260506141952 | 60 | 164 | 2.6 | 6.1 | 0.00 | 0.00 | 0.00 | 85 | 1013.4 |
| 20260506141851 | 60 | 112 | 1.7 | 6.1 | 0.00 | 0.00 | 0.00 | 86 | 1013.5 |
| 20260506141752 | 60 | 142 | 1.7 | 6.1 | 0.00 | 0.00 | 0.00 | 86 | 1013.4 |
| 20260506141647 | 60 | 142 | 1.7 | 6.1 | 0.00 | 0.00 | 0.00 | 86 | 1013.5 |
| 20260506141547 | 60 | 130 | 1.7 | 6.1 | 0.00 | 0.00 | 0.00 | 86 | 1013.4 |
| 20260506141447 | 60 | 123 | 1.7 | 3.5 | 0.00 | 0.00 | 0.00 | 86 | 1013.4 |
| 20260506141347 | 60 | 192 | 1.7 | 3.5 | 0.00 | 0.00 | 0.00 | 86 | 1013.4 |
| 20260506141247 | 60 | 194 | 0.9 | 3.5 | 0.00 | 0.00 | 0.00 | 86 | 1013.4 |
| 20260506141149 | 60 | 146 | 0.9 | 3.5 | 0.00 | 0.00 | 0.00 | 86 | 1013.3 |
| 20260506141047 | 60 | 94 | 0.9 | 3.5 | 0.00 | 0.00 | 0.00 | 86 | 1013.3 |
| 20260506140948 | 60 | 162 | 0.9 | 3.5 | 0.00 | 0.00 | 0.00 | 86 | 1013.4 |
| 20260506140847 | 60 | 162 | 0.9 | 3.5 | 0.00 | 0.00 | 0.00 | 86 | 1013.4 |
| 20260506140747 | 60 | 163 | 0.9 | 3.5 | 0.00 | 0.00 | 0.00 | 86 | 1013.3 |
| 20260506140647 | 60 | 163 | 0.9 | 3.5 | 0.00 | 0.00 | 0.00 | 86 | 1013.3 |
| 20260506140547 | 60 | 165 | 0.9 | 3.5 | 0.00 | 0.00 | 0.00 | 86 | 1013.2 |
| 20260506140447 | 60 | 85 | 0.9 | 3.5 | 0.00 | 0.00 | 0.00 | 86 | 1013.2 |
| 20260506140347 | 60 | 58 | 0.9 | 2.6 | 0.00 | 0.00 | 0.00 | 86 | 1013.4 |
| 20260506140248 | 60 | 58 | 0.9 | 2.6 | 0.00 | 0.00 | 0.00 | 86 | 1013.3 |
| 20260506140147 | 60 | 58 | 0.9 | 2.6 | 0.00 | 0.00 | 0.00 | 86 | 1013.3 |
| 20260506140047 | 60 | 58 | 0.9 | 2.6 | 0.00 | 0.00 | 0.00 | 86 | 1013.3 |
| 20260506135947 | 60 | 58 | 0.9 | 2.6 | 0.00 | 0.00 | 0.00 | 86 | 1013.3 |
| 20260506135847 | 60 | 58 | 0.9 | 2.6 | 0.00 | 0.00 | 0.00 | 86 | 1013.4 |
| 20260506135747 | 60 | 0 | 0.9 | 1.7 | 0.00 | 0.00 | 0.00 | 86 | 1013.5 |
| 20260506135647 | 60 | 0 | 0.9 | 2.6 | 0.00 | 0.00 | 0.00 | 86 | 1013.4 |
| 20260506135548 | 60 | 0 | 0.9 | 2.6 | 0.00 | 0.00 | 0.00 | 86 | 1013.4 |
| 20260506135447 | 60 | 355 | 0.9 | 2.6 | 0.00 | 0.00 | 0.00 | 86 | 1013.4 |
| 20260506135347 | 60 | 355 | 0.9 | 3.5 | 0.00 | 0.00 | 0.00 | 86 | 1013.5 |
| 20260506135248 | 60 | 355 | 0.9 | 3.5 | 0.00 | 0.00 | 0.00 | 86 | 1013.5 |
| 20260506135149 | 60 | 346 | 0.9 | 3.5 | 0.00 | 0.00 | 0.00 | 85 | 1013.7 |
| 20260506135048 | 60 | 346 | 0.9 | 3.5 | 0.00 | 0.00 | 0.00 | 85 | 1013.7 |
| 20260506134947 | 60 | 346 | 0.9 | 3.5 | 0.00 | 0.00 | 0.00 | 85 | 1013.7 |
| 20260506134848 | 60 | 346 | 0.9 | 3.5 | 0.00 | 0.00 | 0.00 | 85 | 1013.8 |
| 20260506134748 | 60 | 346 | 0.9 | 3.5 | 0.00 | 0.00 | 0.00 | 86 | 1013.7 |
| 20260506134647 | 60 | 346 | 0.9 | 4.3 | 0.00 | 0.00 | 0.00 | 86 | 1013.7 |
| 20260506134548 | 60 | 303 | 0.9 | 4.3 | 0.00 | 0.00 | 0.00 | 86 | 1013.7 |
| 20260506134448 | 60 | 240 | 0.9 | 4.3 | 0.00 | 0.00 | 0.00 | 86 | 1013.5 |
| 20260506134343 | 60 | 21 | 1.7 | 4.3 | 0.00 | 0.00 | 0.00 | 86 | 1013.4 |
| 20260506134244 | 60 | 94 | 1.7 | 4.3 | 0.00 | 0.00 | 0.00 | 85 | 1013.4 |
| 20260506134143 | 60 | 94 | 1.7 | 4.3 | 0.00 | 0.00 | 0.00 | 85 | 1013.5 |
| 20260506134045 | 60 | 136 | 1.7 | 4.3 | 0.00 | 0.00 | 0.00 | 85 | 1013.5 |
| 20260506133944 | 60 | 137 | 1.7 | 4.3 | 0.00 | 0.00 | 0.00 | 85 | 1013.4 |
| 20260506133844 | 60 | 137 | 1.7 | 4.3 | 0.00 | 0.00 | 0.00 | 85 | 1013.4 |
| 20260506133743 | 60 | 137 | 1.7 | 4.3 | 0.00 | 0.00 | 0.00 | 85 | 1013.3 |
| 20260506133643 | 60 | 145 | 1.7 | 4.3 | 0.00 | 0.00 | 0.00 | 85 | 1013.2 |
| 20260506133543 | 60 | 138 | 1.7 | 4.3 | 0.00 | 0.00 | 0.00 | 85 | 1013.3 |
| 20260506133444 | 60 | 132 | 1.7 | 4.3 | 0.00 | 0.00 | 0.00 | 85 | 1013.2 |
| 20260506133343 | 60 | 133 | 1.7 | 4.3 | 0.00 | 0.00 | 0.00 | 85 | 1013.3 |
| 20260506133244 | 60 | 129 | 1.7 | 4.3 | 0.00 | 0.00 | 0.00 | 85 | 1013.3 |
| 20260506133137 | 60 | 127 | 1.7 | 4.3 | 0.00 | 0.00 | 0.00 | 84 | 1013.4 |
| 20260506133036 | 60 | 126 | 1.7 | 4.3 | 0.00 | 0.00 | 0.00 | 84 | 1013.3 |
| 20260506132934 | 60 | 208 | 1.7 | 4.3 | 0.00 | 0.00 | 0.00 | 85 | 1013.4 |
| 20260506132835 | 60 | 153 | 1.7 | 4.3 | 0.00 | 0.00 | 0.00 | 85 | 1013.2 |
| 20260506132733 | 60 | 140 | 1.7 | 5.2 | 0.00 | 0.00 | 0.00 | 85 | 1013.3 |
| 20260506132630 | 60 | 115 | 1.7 | 5.2 | 0.00 | 0.00 | 0.00 | 85 | 1013.3 |
| 20260506132527 | 60 | 151 | 1.7 | 5.2 | 0.00 | 0.00 | 0.00 | 85 | 1013.2 |
| 20260506132427 | 60 | 160 | 1.7 | 5.2 | 0.00 | 0.00 | 0.00 | 85 | 1013.3 |
| 20260506132329 | 60 | 160 | 1.7 | 5.2 | 0.00 | 0.00 | 0.00 | 85 | 1013.1 |
| 20260506132229 | 60 | 172 | 1.7 | 5.2 | 0.00 | 0.00 | 0.00 | 85 | 1013.2 |
| 20260506132123 | 60 | 178 | 1.7 | 5.2 | 0.00 | 0.00 | 0.00 | 85 | 1013.2 |
| 20260506132023 | 60 | 130 | 1.7 | 5.2 | 0.00 | 0.00 | 0.00 | 85 | 1013.2 |
| 20260506131922 | 60 | 130 | 1.7 | 5.2 | 0.00 | 0.00 | 0.00 | 85 | 1013.3 |
| 20260506131821 | 60 | 146 | 1.7 | 5.2 | 0.00 | 0.00 | 0.00 | 85 | 1013.3 |
| 20260506131722 | 60 | 165 | 0.9 | 5.2 | 0.00 | 0.00 | 0.00 | 85 | 1013.3 |
| 20260506131613 | 60 | 178 | 1.7 | 5.2 | 0.00 | 0.00 | 0.00 | 85 | 1013.4 |
| 20260506131511 | 60 | 176 | 1.7 | 5.2 | 0.00 | 0.00 | 0.00 | 85 | 1013.3 |
| 20260506131412 | 60 | 178 | 1.7 | 5.2 | 0.00 | 0.00 | 0.00 | 85 | 1013.4 |
| 20260506131312 | 60 | 179 | 1.7 | 5.2 | 0.00 | 0.00 | 0.00 | 85 | 1013.5 |
| 20260506131211 | 60 | 181 | 1.7 | 5.2 | 0.00 | 0.00 | 0.00 | 85 | 1013.5 |
| 20260506131105 | 60 | 271 | 1.7 | 5.2 | 0.00 | 0.00 | 0.00 | 85 | 1013.3 |
| 20260506131006 | 60 | 138 | 1.7 | 5.2 | 0.00 | 0.00 | 0.00 | 85 | 1013.4 |
| 20260506130906 | 60 | 70 | 1.7 | 5.2 | 0.00 | 0.00 | 0.00 | 86 | 1013.4 |
| 20260506130807 | 60 | 272 | 1.7 | 5.2 | 0.00 | 0.00 | 0.00 | 86 | 1013.3 |
| 20260506130705 | 60 | 271 | 1.7 | 5.2 | 0.00 | 0.00 | 0.00 | 86 | 1013.3 |
| 20260506130603 | 59 | 142 | 1.7 | 5.2 | 0.00 | 0.00 | 0.00 | 86 | 1013.3 |
| 20260506130459 | 59 | 142 | 1.7 | 5.2 | 0.00 | 0.00 | 0.00 | 86 | 1013.4 |
| 20260506130400 | 59 | 140 | 1.7 | 5.2 | 0.00 | 0.00 | 0.00 | 86 | 1013.3 |
| 20260506130259 | 59 | 136 | 2.6 | 6.1 | 0.00 | 0.00 | 0.00 | 86 | 1013.4 |
| 20260506130200 | 59 | 165 | 2.6 | 6.1 | 0.00 | 0.00 | 0.00 | 86 | 1013.4 |
| 20260506130053 | 59 | 165 | 2.6 | 6.1 | 0.00 | 0.00 | 0.00 | 86 | 1013.4 |
| 20260506125949 | 59 | 127 | 2.6 | 6.1 | 0.00 | 0.00 | 0.00 | 86 | 1013.7 |
| 20260506125850 | 59 | 298 | 2.6 | 7.8 | 0.00 | 0.00 | 0.00 | 86 | 1013.7 |
| 20260506125749 | 59 | 294 | 2.6 | 7.8 | 0.00 | 0.00 | 0.00 | 86 | 1013.7 |
| 20260506125649 | 59 | 170 | 3.5 | 7.8 | 0.00 | 0.00 | 0.00 | 86 | 1013.4 |
| 20260506125543 | 59 | 171 | 3.5 | 7.8 | 0.00 | 0.00 | 0.00 | 87 | 1013.4 |
| 20260506125442 | 59 | 138 | 3.5 | 7.8 | 0.00 | 0.00 | 0.00 | 87 | 1013.4 |
| 20260506125343 | 59 | 175 | 2.6 | 7.8 | 0.00 | 0.00 | 0.00 | 87 | 1013.4 |
| 20260506125244 | 59 | 123 | 2.6 | 7.8 | 0.00 | 0.00 | 0.00 | 87 | 1013.4 |
| 20260506125143 | 59 | 161 | 2.6 | 7.8 | 0.00 | 0.00 | 0.00 | 87 | 1013.4 |
| 20260506125040 | 59 | 166 | 2.6 | 7.8 | 0.00 | 0.00 | 0.00 | 87 | 1013.4 |
| 20260506124937 | 59 | 158 | 2.6 | 7.8 | 0.00 | 0.00 | 0.00 | 87 | 1013.3 |
| 20260506124839 | 59 | 120 | 1.7 | 7.0 | 0.00 | 0.00 | 0.00 | 87 | 1013.4 |
| 20260506124736 | 58 | 157 | 1.7 | 6.1 | 0.00 | 0.00 | 0.00 | 88 | 1013.4 |
| 20260506124637 | 58 | 159 | 1.7 | 6.1 | 0.00 | 0.00 | 0.00 | 88 | 1013.4 |
| 20260506124530 | 58 | 146 | 1.7 | 6.1 | 0.00 | 0.00 | 0.00 | 88 | 1013.4 |
| 20260506124427 | 58 | 179 | 1.7 | 6.1 | 0.00 | 0.00 | 0.00 | 88 | 1013.5 |
| 20260506124329 | 58 | 148 | 1.7 | 5.2 | 0.00 | 0.00 | 0.00 | 88 | 1013.4 |
| 20260506124228 | 58 | 126 | 1.7 | 5.2 | 0.00 | 0.00 | 0.00 | 88 | 1013.3 |
| 20260506124128 | 58 | 144 | 1.7 | 5.2 | 0.00 | 0.00 | 0.00 | 88 | 1013.5 |
| 20260506124022 | 58 | 145 | 1.7 | 7.0 | 0.00 | 0.00 | 0.00 | 88 | 1013.5 |
| 20260506123922 | 58 | 128 | 1.7 | 7.0 | 0.00 | 0.00 | 0.00 | 88 | 1013.3 |
| 20260506123822 | 58 | 96 | 2.6 | 7.0 | 0.00 | 0.00 | 0.00 | 88 | 1013.2 |
| 20260506123722 | 58 | 121 | 2.6 | 7.0 | 0.00 | 0.00 | 0.00 | 88 | 1013.3 |
| 20260506123622 | 58 | 87 | 1.7 | 7.0 | 0.00 | 0.00 | 0.00 | 88 | 1013.2 |
| 20260506123521 | 58 | 157 | 2.6 | 7.0 | 0.00 | 0.00 | 0.00 | 88 | 1013.2 |
| 20260506123420 | 58 | 122 | 2.6 | 7.0 | 0.00 | 0.00 | 0.00 | 88 | 1013.2 |
| 20260506123319 | 58 | 122 | 2.6 | 7.0 | 0.00 | 0.00 | 0.00 | 88 | 1013.2 |
| 20260506123219 | 58 | 122 | 2.6 | 7.0 | 0.00 | 0.00 | 0.00 | 88 | 1013.1 |
| 20260506123116 | 58 | 121 | 2.6 | 7.0 | 0.00 | 0.00 | 0.00 | 88 | 1013.0 |
| 20260506123006 | 58 | 155 | 2.6 | 7.0 | 0.00 | 0.00 | 0.00 | 89 | 1013.0 |
| 20260506122906 | 58 | 147 | 2.6 | 7.0 | 0.00 | 0.00 | 0.00 | 89 | 1012.9 |
| 20260506122807 | 57 | 180 | 2.6 | 7.0 | 0.00 | 0.00 | 0.00 | 89 | 1012.9 |
| 20260506122705 | 57 | 144 | 2.6 | 7.0 | 0.00 | 0.00 | 0.00 | 89 | 1013.0 |
| 20260506122605 | 57 | 141 | 2.6 | 8.7 | 0.00 | 0.00 | 0.00 | 89 | 1013.1 |
| 20260506122500 | 57 | 140 | 2.6 | 8.7 | 0.00 | 0.00 | 0.00 | 89 | 1013.1 |
| 20260506122359 | 57 | 177 | 2.6 | 8.7 | 0.00 | 0.00 | 0.00 | 89 | 1013.1 |
| 20260506122301 | 57 | 148 | 2.6 | 8.7 | 0.00 | 0.00 | 0.00 | 89 | 1013.2 |
| 20260506122159 | 57 | 178 | 2.6 | 8.7 | 0.00 | 0.00 | 0.00 | 89 | 1013.1 |
| 20260506122059 | 57 | 154 | 3.5 | 8.7 | 0.00 | 0.00 | 0.00 | 89 | 1013.1 |
| 20260506121959 | 57 | 159 | 3.5 | 8.7 | 0.00 | 0.00 | 0.00 | 89 | 1013.1 |
| 20260506121859 | 57 | 150 | 3.5 | 8.7 | 0.00 | 0.00 | 0.00 | 89 | 1013.1 |
| 20260506121758 | 57 | 153 | 3.5 | 8.7 | 0.00 | 0.00 | 0.00 | 89 | 1013.0 |
| 20260506121654 | 57 | 163 | 3.5 | 8.7 | 0.00 | 0.00 | 0.00 | 89 | 1013.0 |
| 20260506121553 | 57 | 182 | 3.5 | 7.8 | 0.00 | 0.00 | 0.00 | 89 | 1012.9 |
| 20260506121449 | 57 | 157 | 3.5 | 7.8 | 0.00 | 0.00 | 0.00 | 89 | 1012.8 |
| 20260506121348 | 57 | 119 | 3.5 | 7.8 | 0.00 | 0.00 | 0.00 | 89 | 1012.8 |
| 20260506121248 | 57 | 161 | 3.5 | 7.8 | 0.00 | 0.00 | 0.00 | 89 | 1012.9 |
| 20260506121147 | 57 | 150 | 3.5 | 7.0 | 0.00 | 0.00 | 0.00 | 89 | 1012.9 |
| 20260506121046 | 57 | 150 | 3.5 | 7.0 | 0.00 | 0.00 | 0.00 | 89 | 1013.0 |
| 20260506120948 | 57 | 158 | 3.5 | 7.0 | 0.00 | 0.00 | 0.00 | 89 | 1013.0 |
| 20260506120846 | 57 | 121 | 3.5 | 7.0 | 0.00 | 0.00 | 0.00 | 89 | 1012.9 |
| 20260506120745 | 57 | 132 | 3.5 | 7.0 | 0.00 | 0.00 | 0.00 | 89 | 1013.1 |
| 20260506120645 | 57 | 167 | 3.5 | 7.0 | 0.00 | 0.00 | 0.00 | 89 | 1013.0 |
| 20260506120546 | 57 | 142 | 3.5 | 7.0 | 0.00 | 0.00 | 0.00 | 89 | 1013.1 |
| 20260506120445 | 57 | 170 | 3.5 | 7.0 | 0.00 | 0.00 | 0.00 | 89 | 1013.3 |
| 20260506120344 | 57 | 137 | 3.5 | 7.0 | 0.00 | 0.00 | 0.00 | 89 | 1013.2 |
| 20260506120246 | 57 | 144 | 3.5 | 7.0 | 0.00 | 0.00 | 0.00 | 89 | 1013.3 |
| 20260506120145 | 57 | 139 | 4.3 | 7.0 | 0.00 | 0.00 | 0.00 | 89 | 1013.2 |
| 20260506120045 | 56 | 94 | 4.3 | 7.0 | 0.00 | 0.00 | 0.00 | 89 | 1013.2 |
| 20260506115946 | 56 | 142 | 4.3 | 7.8 | 0.00 | 0.00 | 0.00 | 89 | 1013.2 |
| 20260506115845 | 57 | 144 | 4.3 | 7.8 | 0.00 | 0.00 | 0.00 | 89 | 1013.2 |
| 20260506115747 | 56 | 138 | 4.3 | 7.8 | 0.00 | 0.00 | 0.00 | 89 | 1013.2 |
| 20260506115645 | 56 | 126 | 4.3 | 7.8 | 0.00 | 0.00 | 0.00 | 89 | 1013.2 |
| 20260506115546 | 56 | 145 | 3.5 | 7.8 | 0.00 | 0.00 | 0.00 | 89 | 1013.1 |
| 20260506115446 | 56 | 134 | 3.5 | 7.8 | 0.00 | 0.00 | 0.00 | 89 | 1013.1 |
| 20260506115343 | 56 | 174 | 3.5 | 7.8 | 0.00 | 0.00 | 0.00 | 89 | 1013.1 |
| 20260506115243 | 56 | 141 | 3.5 | 8.7 | 0.00 | 0.00 | 0.00 | 89 | 1013.1 |
| 20260506115144 | 56 | 175 | 3.5 | 8.7 | 0.00 | 0.00 | 0.00 | 89 | 1013.2 |
| 20260506115043 | 56 | 128 | 3.5 | 8.7 | 0.00 | 0.00 | 0.00 | 89 | 1013.2 |
| 20260506114943 | 56 | 139 | 2.6 | 8.7 | 0.00 | 0.00 | 0.00 | 89 | 1013.4 |
| 20260506114843 | 56 | 147 | 3.5 | 8.7 | 0.00 | 0.00 | 0.00 | 89 | 1013.4 |
| 20260506114744 | 56 | 145 | 3.5 | 8.7 | 0.00 | 0.00 | 0.00 | 89 | 1013.4 |
| 20260506114644 | 56 | 141 | 3.5 | 8.7 | 0.00 | 0.00 | 0.00 | 89 | 1013.5 |
| 20260506114543 | 56 | 157 | 3.5 | 8.7 | 0.00 | 0.00 | 0.00 | 89 | 1013.4 |
| 20260506114443 | 56 | 183 | 3.5 | 8.7 | 0.00 | 0.00 | 0.00 | 89 | 1013.4 |
| 20260506114342 | 56 | 144 | 3.5 | 8.7 | 0.00 | 0.00 | 0.00 | 89 | 1013.5 |
| 20260506114241 | 56 | 126 | 4.3 | 7.8 | 0.00 | 0.00 | 0.00 | 89 | 1013.7 |
| 20260506114142 | 56 | 175 | 4.3 | 7.8 | 0.00 | 0.00 | 0.00 | 89 | 1013.5 |
| 20260506114036 | 56 | 199 | 4.3 | 7.8 | 0.00 | 0.00 | 0.00 | 89 | 1013.5 |
| 20260506113936 | 56 | 184 | 4.3 | 7.8 | 0.00 | 0.00 | 0.00 | 89 | 1013.5 |
| 20260506113836 | 56 | 181 | 4.3 | 7.8 | 0.00 | 0.00 | 0.00 | 89 | 1013.4 |
| 20260506113735 | 56 | 181 | 4.3 | 7.8 | 0.00 | 0.00 | 0.00 | 89 | 1013.4 |
| 20260506113635 | 56 | 183 | 4.3 | 7.8 | 0.00 | 0.00 | 0.00 | 89 | 1013.3 |
| 20260506113530 | 56 | 159 | 4.3 | 8.7 | 0.00 | 0.00 | 0.00 | 89 | 1013.2 |
| 20260506113429 | 56 | 121 | 4.3 | 8.7 | 0.00 | 0.00 | 0.00 | 89 | 1013.3 |
| 20260506113329 | 56 | 160 | 4.3 | 8.7 | 0.00 | 0.00 | 0.00 | 89 | 1013.4 |
| 20260506113228 | 56 | 150 | 4.3 | 8.7 | 0.00 | 0.00 | 0.00 | 89 | 1013.3 |
| 20260506113130 | 56 | 169 | 4.3 | 8.7 | 0.00 | 0.00 | 0.00 | 89 | 1013.3 |
| 20260506113026 | 56 | 198 | 4.3 | 8.7 | 0.00 | 0.00 | 0.00 | 89 | 1013.3 |
| 20260506112922 | 56 | 159 | 4.3 | 9.6 | 0.00 | 0.00 | 0.00 | 89 | 1013.2 |
| 20260506112823 | 56 | 151 | 4.3 | 10.4 | 0.00 | 0.00 | 0.00 | 89 | 1013.2 |
| 20260506112723 | 56 | 148 | 4.3 | 10.4 | 0.00 | 0.00 | 0.00 | 89 | 1013.1 |
| 20260506112622 | 56 | 163 | 4.3 | 10.4 | 0.00 | 0.00 | 0.00 | 89 | 1013.1 |
| 20260506112523 | 56 | 179 | 4.3 | 10.4 | 0.00 | 0.00 | 0.00 | 89 | 1013.1 |
| 20260506112424 | 56 | 150 | 4.3 | 10.4 | 0.00 | 0.00 | 0.00 | 89 | 1013.1 |
| 20260506112323 | 56 | 150 | 4.3 | 10.4 | 0.00 | 0.00 | 0.00 | 89 | 1013.0 |
| 20260506112222 | 56 | 145 | 4.3 | 10.4 | 0.00 | 0.00 | 0.00 | 89 | 1012.9 |
| 20260506112123 | 56 | 148 | 4.3 | 10.4 | 0.00 | 0.00 | 0.00 | 89 | 1013.0 |
| 20260506112025 | 56 | 141 | 4.3 | 10.4 | 0.00 | 0.00 | 0.00 | 89 | 1013.0 |
| 20260506111923 | 56 | 146 | 3.5 | 10.4 | 0.00 | 0.00 | 0.00 | 89 | 1013.0 |
| 20260506111823 | 56 | 141 | 3.5 | 8.7 | 0.00 | 0.00 | 0.00 | 89 | 1012.9 |
| 20260506111722 | 56 | 130 | 3.5 | 8.7 | 0.00 | 0.00 | 0.00 | 89 | 1013.0 |
| 20260506111622 | 56 | 132 | 3.5 | 8.7 | 0.00 | 0.00 | 0.00 | 89 | 1013.0 |
| 20260506111521 | 56 | 144 | 3.5 | 8.7 | 0.00 | 0.00 | 0.00 | 89 | 1013.0 |
| 20260506111422 | 56 | 140 | 3.5 | 8.7 | 0.00 | 0.00 | 0.00 | 88 | 1013.0 |
| 20260506111322 | 56 | 135 | 3.5 | 8.7 | 0.00 | 0.00 | 0.00 | 88 | 1013.0 |
| 20260506111221 | 56 | 142 | 3.5 | 8.7 | 0.00 | 0.00 | 0.00 | 88 | 1013.0 |
| 20260506111121 | 56 | 175 | 3.5 | 8.7 | 0.00 | 0.00 | 0.00 | 88 | 1013.0 |
| 20260506111022 | 56 | 183 | 3.5 | 7.0 | 0.00 | 0.00 | 0.00 | 88 | 1013.0 |
| 20260506110922 | 56 | 169 | 3.5 | 7.0 | 0.00 | 0.00 | 0.00 | 88 | 1013.0 |
| 20260506110818 | 56 | 178 | 3.5 | 7.8 | 0.00 | 0.00 | 0.00 | 88 | 1013.0 |
| 20260506110717 | 56 | 175 | 3.5 | 7.8 | 0.00 | 0.00 | 0.00 | 88 | 1013.0 |
| 20260506110617 | 56 | 154 | 3.5 | 7.8 | 0.00 | 0.00 | 0.00 | 88 | 1013.0 |
| 20260506110516 | 56 | 148 | 3.5 | 13.9 | 0.00 | 0.00 | 0.00 | 88 | 1012.9 |
| 20260506110416 | 56 | 142 | 3.5 | 13.9 | 0.00 | 0.00 | 0.00 | 88 | 1012.8 |
| 20260506110317 | 56 | 161 | 3.5 | 13.9 | 0.00 | 0.00 | 0.00 | 88 | 1012.9 |
| 20260506110216 | 56 | 138 | 4.3 | 13.9 | 0.00 | 0.00 | 0.00 | 88 | 1012.9 |
| 20260506110116 | 56 | 138 | 4.3 | 13.9 | 0.00 | 0.00 | 0.00 | 88 | 1012.8 |
| 20260506110017 | 56 | 184 | 4.3 | 13.9 | 0.00 | 0.00 | 0.00 | 88 | 1012.8 |
| 20260506105918 | 56 | 105 | 3.5 | 13.9 | 0.00 | 0.00 | 0.00 | 88 | 1012.8 |
| 20260506105818 | 56 | 163 | 3.5 | 13.9 | 0.00 | 0.00 | 0.00 | 88 | 1012.8 |
| 20260506105717 | 56 | 138 | 3.5 | 13.9 | 0.00 | 0.00 | 0.00 | 88 | 1012.7 |
| 20260506105612 | 56 | 111 | 3.5 | 13.9 | 0.00 | 0.00 | 0.00 | 88 | 1012.7 |
| 20260506105510 | 56 | 133 | 3.5 | 8.7 | 0.00 | 0.00 | 0.00 | 89 | 1012.8 |
| 20260506105413 | 56 | 140 | 3.5 | 7.8 | 0.00 | 0.00 | 0.00 | 89 | 1012.8 |
| 20260506105311 | 56 | 134 | 2.6 | 7.8 | 0.00 | 0.00 | 0.00 | 89 | 1012.8 |
| 20260506105212 | 56 | 114 | 2.6 | 7.8 | 0.00 | 0.00 | 0.00 | 89 | 1012.8 |
| 20260506105107 | 56 | 139 | 2.6 | 7.8 | 0.00 | 0.00 | 0.00 | 89 | 1012.8 |
| 20260506105006 | 56 | 159 | 2.6 | 7.8 | 0.00 | 0.00 | 0.00 | 89 | 1012.8 |
| 20260506104906 | 56 | 159 | 2.6 | 7.8 | 0.00 | 0.00 | 0.00 | 89 | 1012.8 |
| 20260506104806 | 56 | 110 | 2.6 | 8.7 | 0.00 | 0.00 | 0.00 | 89 | 1012.8 |
| 20260506104706 | 56 | 115 | 2.6 | 8.7 | 0.00 | 0.00 | 0.00 | 89 | 1012.8 |
| 20260506104600 | 56 | 137 | 2.6 | 8.7 | 0.00 | 0.00 | 0.00 | 89 | 1012.7 |
| 20260506104500 | 56 | 137 | 2.6 | 8.7 | 0.00 | 0.00 | 0.00 | 89 | 1012.9 |
| 20260506104359 | 56 | 159 | 2.6 | 8.7 | 0.00 | 0.00 | 0.00 | 89 | 1012.8 |
| 20260506104300 | 56 | 161 | 2.6 | 8.7 | 0.00 | 0.00 | 0.00 | 89 | 1012.8 |
| 20260506104159 | 56 | 142 | 2.6 | 8.7 | 0.00 | 0.00 | 0.00 | 89 | 1012.9 |
| 20260506104058 | 56 | 134 | 2.6 | 8.7 | 0.00 | 0.00 | 0.00 | 89 | 1012.9 |
| 20260506104000 | 56 | 144 | 1.7 | 8.7 | 0.00 | 0.00 | 0.00 | 89 | 1012.9 |
| 20260506103859 | 56 | 180 | 1.7 | 8.7 | 0.00 | 0.00 | 0.00 | 89 | 1013.0 |
| 20260506103800 | 56 | 87 | 2.6 | 6.1 | 0.00 | 0.00 | 0.00 | 89 | 1012.9 |
| 20260506103559 | 56 | 140 | 1.7 | 6.1 | 0.00 | 0.00 | 0.00 | 89 | 1012.8 |
| 20260506103457 | 56 | 189 | 1.7 | 6.1 | 0.00 | 0.00 | 0.00 | 89 | 1012.9 |
| 20260506103356 | 56 | 130 | 1.7 | 6.1 | 0.00 | 0.00 | 0.00 | 89 | 1012.7 |
| 20260506103159 | 55 | 133 | 1.7 | 6.1 | 0.00 | 0.00 | 0.00 | 89 | 1012.8 |
| 20260506103057 | 56 | 146 | 2.6 | 6.1 | 0.00 | 0.00 | 0.00 | 89 | 1012.8 |
| 20260506102958 | 55 | 147 | 2.6 | 7.8 | 0.00 | 0.00 | 0.00 | 89 | 1012.8 |
| 20260506102846 | 55 | 149 | 2.6 | 8.7 | 0.00 | 0.00 | 0.00 | 89 | 1012.8 |
| 20260506102748 | 55 | 180 | 2.6 | 8.7 | 0.00 | 0.00 | 0.00 | 89 | 1012.7 |
| 20260506102648 | 55 | 187 | 2.6 | 8.7 | 0.00 | 0.00 | 0.00 | 89 | 1012.8 |
| 20260506102547 | 55 | 199 | 2.6 | 8.7 | 0.00 | 0.00 | 0.00 | 89 | 1012.7 |
| 20260506102448 | 55 | 200 | 3.5 | 8.7 | 0.00 | 0.00 | 0.00 | 89 | 1012.6 |
| 20260506102342 | 55 | 178 | 3.5 | 8.7 | 0.00 | 0.00 | 0.00 | 89 | 1012.6 |
| 20260506102242 | 55 | 148 | 3.5 | 8.7 | 0.00 | 0.00 | 0.00 | 89 | 1012.5 |
| 20260506102142 | 55 | 148 | 3.5 | 8.7 | 0.00 | 0.00 | 0.00 | 89 | 1012.5 |
| 20260506102042 | 55 | 129 | 3.5 | 8.7 | 0.00 | 0.00 | 0.00 | 89 | 1012.5 |
| 20260506101942 | 55 | 127 | 2.6 | 8.7 | 0.00 | 0.00 | 0.00 | 89 | 1012.5 |
| 20260506101839 | 55 | 153 | 2.6 | 8.7 | 0.00 | 0.00 | 0.00 | 89 | 1012.5 |
| 20260506101740 | 55 | 171 | 3.5 | 8.7 | 0.00 | 0.00 | 0.00 | 89 | 1012.6 |
| 20260506101639 | 55 | 139 | 3.5 | 8.7 | 0.00 | 0.00 | 0.00 | 89 | 1012.5 |
| 20260506101538 | 55 | 163 | 3.5 | 8.7 | 0.00 | 0.00 | 0.00 | 89 | 1012.6 |
| 20260506101436 | 55 | 157 | 4.3 | 8.7 | 0.00 | 0.00 | 0.00 | 89 | 1012.6 |
| 20260506101328 | 55 | 116 | 3.5 | 11.3 | 0.00 | 0.00 | 0.00 | 89 | 1012.5 |
| 20260506101229 | 55 | 142 | 4.3 | 11.3 | 0.00 | 0.00 | 0.00 | 89 | 1012.5 |
| 20260506101128 | 55 | 145 | 4.3 | 11.3 | 0.00 | 0.00 | 0.00 | 89 | 1012.5 |
| 20260506101028 | 56 | 129 | 4.3 | 11.3 | 0.00 | 0.00 | 0.00 | 89 | 1012.6 |
| 20260506100926 | 56 | 143 | 4.3 | 11.3 | 0.00 | 0.00 | 0.00 | 89 | 1012.5 |
| 20260506100819 | 55 | 167 | 4.3 | 11.3 | 0.00 | 0.00 | 0.00 | 89 | 1012.4 |
| 20260506100720 | 55 | 124 | 4.3 | 11.3 | 0.00 | 0.00 | 0.00 | 89 | 1012.4 |
| 20260506100620 | 56 | 148 | 4.3 | 11.3 | 0.00 | 0.00 | 0.00 | 89 | 1012.5 |
| 20260506100519 | 56 | 121 | 4.3 | 11.3 | 0.00 | 0.00 | 0.00 | 89 | 1012.5 |
| 20260506100420 | 56 | 128 | 4.3 | 10.4 | 0.00 | 0.00 | 0.00 | 89 | 1012.5 |
| 20260506100315 | 56 | 152 | 4.3 | 10.4 | 0.00 | 0.00 | 0.00 | 89 | 1012.6 |
| 20260506100215 | 56 | 173 | 4.3 | 10.4 | 0.00 | 0.00 | 0.00 | 89 | 1012.5 |
| 20260506100115 | 56 | 163 | 4.3 | 10.4 | 0.00 | 0.00 | 0.00 | 89 | 1012.5 |
| 20260506100017 | 56 | 163 | 4.3 | 10.4 | 0.00 | 0.00 | 0.00 | 89 | 1012.4 |
| 20260506095913 | 56 | 174 | 4.3 | 10.4 | 0.00 | 0.00 | 0.00 | 89 | 1012.4 |
| 20260506095803 | 56 | 144 | 4.3 | 10.4 | 0.00 | 0.00 | 0.00 | 89 | 1012.3 |
| 20260506095704 | 56 | 115 | 4.3 | 10.4 | 0.00 | 0.00 | 0.00 | 89 | 1012.4 |
| 20260506095604 | 56 | 225 | 4.3 | 10.4 | 0.00 | 0.00 | 0.00 | 89 | 1012.4 |
| 20260506095503 | 56 | 148 | 4.3 | 10.4 | 0.00 | 0.00 | 0.00 | 89 | 1012.4 |
| 20260506095403 | 56 | 124 | 4.3 | 10.4 | 0.00 | 0.00 | 0.00 | 89 | 1012.4 |
| 20260506095257 | 56 | 136 | 4.3 | 10.4 | 0.00 | 0.00 | 0.00 | 89 | 1012.4 |
| 20260506095157 | 56 | 131 | 4.3 | 10.4 | 0.00 | 0.00 | 0.00 | 89 | 1012.4 |
| 20260506095058 | 56 | 139 | 4.3 | 9.6 | 0.00 | 0.00 | 0.00 | 88 | 1012.4 |
| 20260506094957 | 56 | 159 | 4.3 | 9.6 | 0.00 | 0.00 | 0.00 | 88 | 1012.5 |
| 20260506094858 | 56 | 147 | 4.3 | 9.6 | 0.00 | 0.00 | 0.00 | 88 | 1012.5 |
| 20260506094753 | 56 | 155 | 4.3 | 9.6 | 0.00 | 0.00 | 0.00 | 88 | 1012.5 |
| 20260506094654 | 56 | 136 | 4.3 | 9.6 | 0.00 | 0.00 | 0.00 | 88 | 1012.6 |
| 20260506094553 | 56 | 123 | 4.3 | 8.7 | 0.00 | 0.00 | 0.00 | 88 | 1012.7 |
| 20260506094454 | 56 | 153 | 4.3 | 8.7 | 0.00 | 0.00 | 0.00 | 88 | 1012.6 |
| 20260506094352 | 56 | 160 | 4.3 | 8.7 | 0.00 | 0.00 | 0.00 | 88 | 1012.7 |
| 20260506094243 | 56 | 180 | 4.3 | 8.7 | 0.00 | 0.00 | 0.00 | 88 | 1012.6 |
| 20260506094141 | 56 | 136 | 4.3 | 8.7 | 0.00 | 0.00 | 0.00 | 88 | 1012.6 |
| 20260506094042 | 56 | 163 | 4.3 | 8.7 | 0.00 | 0.00 | 0.00 | 88 | 1012.5 |
| 20260506093942 | 56 | 134 | 4.3 | 9.6 | 0.00 | 0.00 | 0.00 | 88 | 1012.5 |
| 20260506093842 | 56 | 138 | 4.3 | 9.6 | 0.00 | 0.00 | 0.00 | 88 | 1012.6 |
| 20260506093738 | 56 | 172 | 4.3 | 9.6 | 0.00 | 0.00 | 0.00 | 88 | 1012.6 |
| 20260506093635 | 56 | 130 | 4.3 | 9.6 | 0.00 | 0.00 | 0.00 | 88 | 1012.6 |
| 20260506093534 | 56 | 150 | 4.3 | 9.6 | 0.00 | 0.00 | 0.00 | 88 | 1012.6 |
| 20260506093436 | 56 | 162 | 4.3 | 9.6 | 0.00 | 0.00 | 0.00 | 88 | 1012.6 |
| 20260506093336 | 56 | 148 | 4.3 | 9.6 | 0.00 | 0.00 | 0.00 | 88 | 1012.8 |
| 20260506093230 | 56 | 174 | 4.3 | 9.6 | 0.00 | 0.00 | 0.00 | 88 | 1012.7 |
| 20260506093130 | 56 | 146 | 4.3 | 9.6 | 0.00 | 0.00 | 0.00 | 88 | 1012.7 |
| 20260506093029 | 56 | 136 | 3.5 | 9.6 | 0.00 | 0.00 | 0.00 | 87 | 1012.6 |
| 20260506092930 | 56 | 163 | 3.5 | 7.8 | 0.00 | 0.00 | 0.00 | 87 | 1012.6 |
| 20260506092830 | 56 | 177 | 3.5 | 7.8 | 0.00 | 0.00 | 0.00 | 87 | 1012.5 |
| 20260506092720 | 56 | 196 | 3.5 | 7.8 | 0.00 | 0.00 | 0.00 | 88 | 1012.6 |
| 20260506092618 | 56 | 155 | 3.5 | 7.8 | 0.00 | 0.00 | 0.00 | 87 | 1012.5 |
| 20260506092520 | 56 | 194 | 3.5 | 7.8 | 0.00 | 0.00 | 0.00 | 87 | 1012.6 |
| 20260506092418 | 56 | 156 | 3.5 | 7.8 | 0.00 | 0.00 | 0.00 | 87 | 1012.6 |
| 20260506092319 | 56 | 158 | 4.3 | 7.8 | 0.00 | 0.00 | 0.00 | 87 | 1012.5 |
| 20260506092215 | 56 | 153 | 4.3 | 9.6 | 0.00 | 0.00 | 0.00 | 87 | 1012.5 |
| 20260506092114 | 56 | 184 | 4.3 | 10.4 | 0.00 | 0.00 | 0.00 | 87 | 1012.6 |
| 20260506092014 | 56 | 172 | 4.3 | 10.4 | 0.00 | 0.00 | 0.00 | 87 | 1012.5 |
| 20260506091912 | 56 | 142 | 4.3 | 10.4 | 0.00 | 0.00 | 0.00 | 87 | 1012.5 |
| 20260506091814 | 56 | 148 | 5.2 | 10.4 | 0.00 | 0.00 | 0.00 | 87 | 1012.5 |
| 20260506091710 | 56 | 153 | 5.2 | 10.4 | 0.00 | 0.00 | 0.00 | 87 | 1012.5 |
| 20260506091607 | 56 | 188 | 5.2 | 10.4 | 0.00 | 0.00 | 0.00 | 87 | 1012.6 |
| 20260506091508 | 56 | 142 | 5.2 | 10.4 | 0.00 | 0.00 | 0.00 | 87 | 1012.4 |
| 20260506091408 | 56 | 140 | 6.1 | 10.4 | 0.00 | 0.00 | 0.00 | 87 | 1012.6 |
| 20260506091308 | 56 | 151 | 5.2 | 10.4 | 0.00 | 0.00 | 0.00 | 87 | 1012.5 |
| 20260506091157 | 56 | 173 | 5.2 | 10.4 | 0.00 | 0.00 | 0.00 | 87 | 1012.5 |
| 20260506091058 | 56 | 145 | 5.2 | 10.4 | 0.00 | 0.00 | 0.00 | 87 | 1012.5 |
| 20260506090958 | 56 | 130 | 5.2 | 10.4 | 0.00 | 0.00 | 0.00 | 87 | 1012.6 |
| 20260506090858 | 57 | 131 | 5.2 | 10.4 | 0.00 | 0.00 | 0.00 | 87 | 1012.7 |
| 20260506090758 | 57 | 137 | 5.2 | 10.4 | 0.00 | 0.00 | 0.00 | 87 | 1012.6 |
| 20260506090652 | 57 | 138 | 5.2 | 10.4 | 0.00 | 0.00 | 0.00 | 87 | 1012.6 |
| 20260506090550 | 57 | 134 | 5.2 | 10.4 | 0.00 | 0.00 | 0.00 | 87 | 1012.7 |
| 20260506090452 | 57 | 144 | 4.3 | 10.4 | 0.00 | 0.00 | 0.00 | 87 | 1012.6 |
| 20260506090351 | 57 | 145 | 4.3 | 10.4 | 0.00 | 0.00 | 0.00 | 87 | 1012.8 |
| 20260506090252 | 57 | 186 | 4.3 | 10.4 | 0.00 | 0.00 | 0.00 | 87 | 1012.8 |
| 20260506090146 | 57 | 213 | 4.3 | 10.4 | 0.00 | 0.00 | 0.00 | 87 | 1012.6 |
| 20260506090046 | 57 | 203 | 4.3 | 10.4 | 0.00 | 0.00 | 0.00 | 87 | 1012.7 |
| 20260506085946 | 57 | 155 | 4.3 | 15.6 | 0.00 | 0.00 | 0.00 | 87 | 1012.8 |
| 20260506085845 | 57 | 155 | 4.3 | 15.6 | 0.00 | 0.00 | 0.00 | 87 | 1012.8 |
| 20260506085746 | 57 | 143 | 4.3 | 15.6 | 0.00 | 0.00 | 0.00 | 87 | 1012.7 |
| 20260506085636 | 57 | 167 | 4.3 | 15.6 | 0.00 | 0.00 | 0.00 | 87 | 1012.7 |
| 20260506085534 | 57 | 144 | 4.3 | 15.6 | 0.00 | 0.00 | 0.00 | 87 | 1012.7 |
| 20260506085436 | 57 | 134 | 4.3 | 15.6 | 0.00 | 0.00 | 0.00 | 87 | 1012.9 |
| 20260506085335 | 57 | 136 | 4.3 | 15.6 | 0.00 | 0.00 | 0.00 | 87 | 1012.8 |
| 20260506085235 | 57 | 171 | 4.3 | 15.6 | 0.00 | 0.00 | 0.00 | 87 | 1012.8 |
| 20260506085129 | 57 | 142 | 4.3 | 15.6 | 0.00 | 0.00 | 0.00 | 87 | 1012.8 |
| 20260506085028 | 57 | 180 | 4.3 | 15.6 | 0.00 | 0.00 | 0.00 | 86 | 1012.9 |
| 20260506084930 | 57 | 142 | 4.3 | 10.4 | 0.00 | 0.00 | 0.00 | 86 | 1012.9 |
| 20260506084830 | 57 | 149 | 4.3 | 10.4 | 0.00 | 0.00 | 0.00 | 87 | 1012.8 |
| 20260506084730 | 57 | 153 | 4.3 | 10.4 | 0.00 | 0.00 | 0.00 | 86 | 1012.8 |
| 20260506084625 | 57 | 148 | 4.3 | 10.4 | 0.00 | 0.00 | 0.00 | 86 | 1012.8 |
| 20260506084525 | 57 | 183 | 4.3 | 10.4 | 0.00 | 0.00 | 0.00 | 86 | 1012.8 |
| 20260506084425 | 57 | 172 | 4.3 | 10.4 | 0.00 | 0.00 | 0.00 | 86 | 1012.8 |
| 20260506084325 | 57 | 178 | 4.3 | 10.4 | 0.00 | 0.00 | 0.00 | 86 | 1012.9 |
| 20260506084223 | 57 | 156 | 4.3 | 10.4 | 0.00 | 0.00 | 0.00 | 86 | 1012.9 |
| 20260506084115 | 57 | 142 | 4.3 | 10.4 | 0.00 | 0.00 | 0.00 | 86 | 1012.9 |
| 20260506084015 | 57 | 167 | 4.3 | 10.4 | 0.00 | 0.00 | 0.00 | 86 | 1013.0 |
| 20260506083914 | 57 | 147 | 4.3 | 12.2 | 0.00 | 0.00 | 0.00 | 86 | 1012.9 |
| 20260506083813 | 57 | 148 | 4.3 | 12.2 | 0.00 | 0.00 | 0.00 | 86 | 1012.9 |
| 20260506083714 | 57 | 142 | 4.3 | 12.2 | 0.00 | 0.00 | 0.00 | 86 | 1012.9 |
| 20260506083608 | 57 | 169 | 4.3 | 12.2 | 0.00 | 0.00 | 0.00 | 86 | 1012.9 |
| 20260506083508 | 57 | 179 | 4.3 | 12.2 | 0.00 | 0.00 | 0.00 | 86 | 1012.8 |
| 20260506083409 | 57 | 145 | 4.3 | 12.2 | 0.00 | 0.00 | 0.00 | 86 | 1012.8 |
| 20260506083308 | 57 | 128 | 4.3 | 12.2 | 0.00 | 0.00 | 0.00 | 86 | 1012.8 |
| 20260506083208 | 57 | 138 | 3.5 | 12.2 | 0.00 | 0.00 | 0.00 | 86 | 1012.9 |
| 20260506083100 | 57 | 142 | 4.3 | 12.2 | 0.00 | 0.00 | 0.00 | 86 | 1012.9 |
| 20260506083001 | 57 | 162 | 3.5 | 12.2 | 0.00 | 0.00 | 0.00 | 85 | 1013.0 |
| 20260506082901 | 57 | 158 | 3.5 | 8.7 | 0.00 | 0.00 | 0.00 | 85 | 1013.1 |
| 20260506082802 | 57 | 173 | 4.3 | 8.7 | 0.00 | 0.00 | 0.00 | 85 | 1013.0 |
| 20260506082702 | 57 | 139 | 4.3 | 8.7 | 0.00 | 0.00 | 0.00 | 85 | 1013.0 |
| 20260506082550 | 57 | 161 | 3.5 | 8.7 | 0.00 | 0.00 | 0.00 | 85 | 1012.9 |
| 20260506082452 | 57 | 183 | 4.3 | 8.7 | 0.00 | 0.00 | 0.00 | 85 | 1013.0 |
| 20260506082352 | 57 | 164 | 4.3 | 8.7 | 0.00 | 0.00 | 0.00 | 85 | 1013.0 |
| 20260506082252 | 57 | 188 | 4.3 | 8.7 | 0.00 | 0.00 | 0.00 | 85 | 1012.9 |
| 20260506082152 | 57 | 124 | 4.3 | 8.7 | 0.00 | 0.00 | 0.00 | 85 | 1012.8 |
| 20260506082051 | 57 | 170 | 4.3 | 9.6 | 0.00 | 0.00 | 0.00 | 85 | 1012.9 |
| 20260506081950 | 57 | 132 | 5.2 | 13.0 | 0.00 | 0.00 | 0.00 | 85 | 1012.9 |
| 20260506081849 | 57 | 153 | 5.2 | 13.0 | 0.00 | 0.00 | 0.00 | 85 | 1012.9 |
| 20260506081747 | 57 | 175 | 6.1 | 13.0 | 0.00 | 0.00 | 0.00 | 85 | 1012.9 |
| 20260506081646 | 57 | 137 | 6.1 | 13.0 | 0.00 | 0.00 | 0.00 | 85 | 1012.9 |
| 20260506081538 | 57 | 162 | 6.1 | 13.0 | 0.00 | 0.00 | 0.00 | 85 | 1012.9 |
| 20260506081439 | 57 | 142 | 6.1 | 13.0 | 0.00 | 0.00 | 0.00 | 85 | 1013.0 |
| 20260506081340 | 57 | 166 | 6.1 | 13.0 | 0.00 | 0.00 | 0.00 | 85 | 1013.0 |
| 20260506081239 | 57 | 165 | 6.1 | 13.0 | 0.00 | 0.00 | 0.00 | 85 | 1012.9 |
| 20260506081140 | 57 | 190 | 6.1 | 13.0 | 0.00 | 0.00 | 0.00 | 85 | 1012.7 |
| 20260506081036 | 57 | 136 | 6.1 | 13.0 | 0.00 | 0.00 | 0.00 | 85 | 1012.7 |
| 20260506080936 | 57 | 132 | 5.2 | 13.0 | 0.00 | 0.00 | 0.00 | 84 | 1012.7 |
| 20260506080835 | 57 | 191 | 5.2 | 13.0 | 0.00 | 0.00 | 0.00 | 84 | 1012.7 |
| 20260506080734 | 58 | 136 | 5.2 | 12.2 | 0.00 | 0.00 | 0.00 | 84 | 1012.5 |
| 20260506080632 | 58 | 144 | 5.2 | 12.2 | 0.00 | 0.00 | 0.00 | 84 | 1012.5 |
| 20260506080533 | 58 | 134 | 5.2 | 12.2 | 0.00 | 0.00 | 0.00 | 84 | 1012.6 |
| 20260506080433 | 58 | 133 | 5.2 | 12.2 | 0.00 | 0.00 | 0.00 | 84 | 1012.5 |
| 20260506080332 | 58 | 177 | 4.3 | 9.6 | 0.00 | 0.00 | 0.00 | 84 | 1012.5 |
| 20260506080232 | 58 | 167 | 5.2 | 13.9 | 0.00 | 0.00 | 0.00 | 84 | 1012.7 |
| 20260506080131 | 58 | 163 | 5.2 | 13.9 | 0.00 | 0.00 | 0.00 | 84 | 1012.8 |
| 20260506073521 | 58 | 189 | 5.2 | 12.2 | 0.00 | 0.00 | 0.00 | 83 | 1012.9 |
| 20260506073422 | 58 | 117 | 5.2 | 12.2 | 0.00 | 0.00 | 0.00 | 83 | 1012.9 |
| 20260506073322 | 58 | 138 | 5.2 | 12.2 | 0.00 | 0.00 | 0.00 | 83 | 1012.9 |
| 20260506073222 | 58 | 132 | 5.2 | 12.2 | 0.00 | 0.00 | 0.00 | 82 | 1013.0 |
| 20260506073115 | 58 | 150 | 5.2 | 12.2 | 0.00 | 0.00 | 0.00 | 82 | 1013.0 |
| 20260506073016 | 58 | 143 | 5.2 | 12.2 | 0.00 | 0.00 | 0.00 | 82 | 1013.0 |
| 20260506072916 | 58 | 134 | 5.2 | 13.0 | 0.00 | 0.00 | 0.00 | 82 | 1013.0 |
| 20260506072816 | 58 | 130 | 6.1 | 13.0 | 0.00 | 0.00 | 0.00 | 82 | 1013.0 |
| 20260506072716 | 58 | 144 | 6.1 | 13.0 | 0.00 | 0.00 | 0.00 | 82 | 1013.0 |
| 20260506072610 | 58 | 171 | 5.2 | 13.0 | 0.00 | 0.00 | 0.00 | 82 | 1012.9 |
| 20260506072512 | 58 | 172 | 5.2 | 13.0 | 0.00 | 0.00 | 0.00 | 82 | 1013.0 |
| 20260506072412 | 58 | 190 | 5.2 | 13.0 | 0.00 | 0.00 | 0.00 | 81 | 1012.9 |
| 20260506072311 | 58 | 144 | 6.1 | 13.0 | 0.00 | 0.00 | 0.00 | 81 | 1013.0 |
| 20260506072212 | 58 | 148 | 6.1 | 13.0 | 0.00 | 0.00 | 0.00 | 82 | 1012.9 |
| 20260506072112 | 58 | 201 | 6.1 | 15.6 | 0.00 | 0.00 | 0.00 | 81 | 1013.0 |
| 20260506072011 | 58 | 184 | 6.1 | 15.6 | 0.00 | 0.00 | 0.00 | 81 | 1013.0 |
| 20260506071909 | 58 | 163 | 5.2 | 15.6 | 0.00 | 0.00 | 0.00 | 81 | 1013.2 |
| 20260506071808 | 58 | 161 | 5.2 | 15.6 | 0.00 | 0.00 | 0.00 | 81 | 1013.2 |
| 20260506071708 | 58 | 148 | 5.2 | 15.6 | 0.00 | 0.00 | 0.00 | 81 | 1013.2 |
| 20260506071608 | 58 | 171 | 6.1 | 15.6 | 0.00 | 0.00 | 0.00 | 81 | 1013.1 |
| 20260506071507 | 58 | 171 | 5.2 | 15.6 | 0.00 | 0.00 | 0.00 | 81 | 1013.1 |
| 20260506071406 | 58 | 141 | 6.1 | 15.6 | 0.00 | 0.00 | 0.00 | 81 | 1013.2 |
| 20260506071308 | 58 | 180 | 6.1 | 15.6 | 0.00 | 0.00 | 0.00 | 81 | 1013.2 |
| 20260506071206 | 58 | 143 | 6.1 | 15.6 | 0.00 | 0.00 | 0.00 | 81 | 1013.3 |
| 20260506071108 | 58 | 151 | 6.1 | 13.9 | 0.00 | 0.00 | 0.00 | 81 | 1013.1 |
| 20260506071008 | 58 | 139 | 6.1 | 13.9 | 0.00 | 0.00 | 0.00 | 81 | 1013.2 |
| 20260506070901 | 58 | 157 | 5.2 | 13.9 | 0.00 | 0.00 | 0.00 | 81 | 1013.1 |
| 20260506070801 | 58 | 168 | 5.2 | 13.9 | 0.00 | 0.00 | 0.00 | 81 | 1013.2 |
| 20260506070702 | 58 | 157 | 5.2 | 13.9 | 0.00 | 0.00 | 0.00 | 81 | 1013.1 |
| 20260506070600 | 58 | 155 | 5.2 | 13.9 | 0.00 | 0.00 | 0.00 | 81 | 1013.2 |
| 20260506070502 | 58 | 138 | 6.1 | 11.3 | 0.00 | 0.00 | 0.00 | 81 | 1013.1 |
| 20260506070358 | 58 | 165 | 5.2 | 14.8 | 0.00 | 0.00 | 0.00 | 81 | 1013.2 |
| 20260506070255 | 58 | 219 | 5.2 | 14.8 | 0.00 | 0.00 | 0.00 | 81 | 1013.2 |
| 20260506070156 | 58 | 153 | 5.2 | 14.8 | 0.00 | 0.00 | 0.00 | 81 | 1013.2 |
| 20260506062426 | 59 | 167 | 5.2 | 11.3 | 0.00 | 0.00 | 0.00 | 77 | 1013.4 |
| 20260506062325 | 59 | 146 | 5.2 | 11.3 | 0.00 | 0.00 | 0.00 | 77 | 1013.3 |
| 20260506062226 | 59 | 184 | 5.2 | 11.3 | 0.00 | 0.00 | 0.00 | 77 | 1013.3 |
| 20260506062124 | 59 | 145 | 5.2 | 11.3 | 0.00 | 0.00 | 0.00 | 77 | 1013.3 |
| 20260506062026 | 59 | 133 | 5.2 | 11.3 | 0.00 | 0.00 | 0.00 | 77 | 1013.4 |
| 20260506061926 | 59 | 158 | 5.2 | 11.3 | 0.00 | 0.00 | 0.00 | 76 | 1013.4 |
| 20260506061825 | 59 | 140 | 5.2 | 12.2 | 0.00 | 0.00 | 0.00 | 76 | 1013.5 |
| 20260506061726 | 59 | 144 | 5.2 | 12.2 | 0.00 | 0.00 | 0.00 | 76 | 1013.4 |
| 20260506061624 | 59 | 150 | 5.2 | 12.2 | 0.00 | 0.00 | 0.00 | 76 | 1013.5 |
| 20260506061523 | 59 | 148 | 5.2 | 12.2 | 0.00 | 0.00 | 0.00 | 76 | 1013.4 |
| 20260506061422 | 59 | 172 | 4.3 | 12.2 | 0.00 | 0.00 | 0.00 | 76 | 1013.5 |
| 20260506061323 | 59 | 140 | 4.3 | 12.2 | 0.00 | 0.00 | 0.00 | 75 | 1013.5 |
| 20260506061222 | 59 | 148 | 4.3 | 12.2 | 0.00 | 0.00 | 0.00 | 75 | 1013.5 |
| 20260506061124 | 59 | 142 | 4.3 | 12.2 | 0.00 | 0.00 | 0.00 | 75 | 1013.5 |
| 20260506061024 | 59 | 155 | 4.3 | 12.2 | 0.00 | 0.00 | 0.00 | 75 | 1013.5 |
| 20260506060915 | 59 | 146 | 4.3 | 12.2 | 0.00 | 0.00 | 0.00 | 75 | 1013.4 |
| 20260506060812 | 59 | 108 | 4.3 | 12.2 | 0.00 | 0.00 | 0.00 | 75 | 1013.5 |
| 20260506060713 | 59 | 148 | 4.3 | 12.2 | 0.00 | 0.00 | 0.00 | 75 | 1013.7 |
| 20260506060613 | 59 | 146 | 4.3 | 12.2 | 0.00 | 0.00 | 0.00 | 75 | 1013.5 |
| 20260506060513 | 59 | 161 | 4.3 | 12.2 | 0.00 | 0.00 | 0.00 | 75 | 1013.5 |
| 20260506060412 | 59 | 136 | 4.3 | 12.2 | 0.00 | 0.00 | 0.00 | 75 | 1013.7 |
| 20260506060313 | 59 | 150 | 4.3 | 12.2 | 0.00 | 0.00 | 0.00 | 74 | 1013.7 |
| 20260506060214 | 59 | 155 | 4.3 | 12.2 | 0.00 | 0.00 | 0.00 | 74 | 1013.7 |
| 20260506060114 | 59 | 152 | 4.3 | 12.2 | 0.00 | 0.00 | 0.00 | 74 | 1013.7 |
| 20260506051400 | 61 | 173 | 5.2 | 11.3 | 0.00 | 0.00 | 0.00 | 68 | 1013.7 |
| 20260506051300 | 61 | 160 | 5.2 | 11.3 | 0.00 | 0.00 | 0.00 | 67 | 1013.5 |
| 20260506051202 | 61 | 155 | 5.2 | 11.3 | 0.00 | 0.00 | 0.00 | 67 | 1013.5 |
| 20260506051056 | 61 | 148 | 6.1 | 11.3 | 0.00 | 0.00 | 0.00 | 67 | 1013.7 |
| 20260506050956 | 61 | 142 | 6.1 | 11.3 | 0.00 | 0.00 | 0.00 | 67 | 1013.5 |
| 20260506050858 | 61 | 145 | 5.2 | 11.3 | 0.00 | 0.00 | 0.00 | 67 | 1013.5 |
| 20260506050757 | 61 | 135 | 5.2 | 11.3 | 0.00 | 0.00 | 0.00 | 67 | 1013.7 |
| 20260506050658 | 61 | 152 | 5.2 | 11.3 | 0.00 | 0.00 | 0.00 | 67 | 1013.7 |
| 20260506050557 | 61 | 147 | 5.2 | 11.3 | 0.00 | 0.00 | 0.00 | 66 | 1013.7 |
| 20260506050455 | 61 | 153 | 5.2 | 11.3 | 0.00 | 0.00 | 0.00 | 66 | 1013.7 |
| 20260506050356 | 61 | 142 | 5.2 | 11.3 | 0.00 | 0.00 | 0.00 | 66 | 1013.7 |
| 20260506050255 | 61 | 180 | 5.2 | 11.3 | 0.00 | 0.00 | 0.00 | 66 | 1013.8 |
| 20260506050155 | 61 | 142 | 5.2 | 11.3 | 0.00 | 0.00 | 0.00 | 66 | 1013.8 |
| 20260506045048 | 62 | 148 | 4.3 | 12.2 | 0.00 | 0.00 | 0.00 | 64 | 1013.9 |
| 20260506044946 | 62 | 176 | 4.3 | 12.2 | 0.00 | 0.00 | 0.00 | 65 | 1013.9 |
| 20260506044846 | 62 | 153 | 4.3 | 12.2 | 0.00 | 0.00 | 0.00 | 64 | 1013.9 |
| 20260506044747 | 62 | 163 | 5.2 | 12.2 | 0.00 | 0.00 | 0.00 | 64 | 1013.9 |
| 20260506044646 | 62 | 154 | 5.2 | 12.2 | 0.00 | 0.00 | 0.00 | 64 | 1013.7 |
| 20260506044547 | 63 | 186 | 5.2 | 12.2 | 0.00 | 0.00 | 0.00 | 64 | 1013.8 |
| 20260506044448 | 63 | 140 | 5.2 | 12.2 | 0.00 | 0.00 | 0.00 | 64 | 1013.7 |
| 20260506044346 | 63 | 133 | 5.2 | 13.0 | 0.00 | 0.00 | 0.00 | 64 | 1013.7 |
| 20260506044248 | 63 | 126 | 5.2 | 13.0 | 0.00 | 0.00 | 0.00 | 64 | 1013.5 |
| 20260506044146 | 63 | 146 | 6.1 | 13.0 | 0.00 | 0.00 | 0.00 | 64 | 1013.5 |
| 20260506044046 | 63 | 174 | 5.2 | 13.0 | 0.00 | 0.00 | 0.00 | 64 | 1013.5 |
| 20260506043946 | 63 | 152 | 5.2 | 13.0 | 0.00 | 0.00 | 0.00 | 64 | 1013.4 |
| 20260506043848 | 63 | 131 | 5.2 | 13.0 | 0.00 | 0.00 | 0.00 | 64 | 1013.5 |
| 20260506043746 | 63 | 152 | 5.2 | 13.0 | 0.00 | 0.00 | 0.00 | 63 | 1013.4 |
| 20260506043646 | 63 | 150 | 5.2 | 13.0 | 0.00 | 0.00 | 0.00 | 63 | 1013.3 |
| 20260506043548 | 63 | 134 | 5.2 | 13.0 | 0.00 | 0.00 | 0.00 | 63 | 1013.5 |
| 20260506043446 | 63 | 182 | 5.2 | 13.0 | 0.00 | 0.00 | 0.00 | 63 | 1013.4 |
| 20260506043346 | 63 | 142 | 5.2 | 13.0 | 0.00 | 0.00 | 0.00 | 63 | 1013.5 |
| 20260506043248 | 63 | 162 | 5.2 | 13.0 | 0.00 | 0.00 | 0.00 | 63 | 1013.5 |
| 20260506043146 | 63 | 115 | 5.2 | 13.0 | 0.00 | 0.00 | 0.00 | 63 | 1013.5 |
| 20260506043047 | 63 | 146 | 5.2 | 13.0 | 0.00 | 0.00 | 0.00 | 63 | 1013.8 |
| 20260506042947 | 63 | 167 | 5.2 | 13.0 | 0.00 | 0.00 | 0.00 | 63 | 1013.7 |
| 20260506042846 | 63 | 167 | 6.1 | 13.0 | 0.00 | 0.00 | 0.00 | 63 | 1013.7 |
| 20260506042748 | 63 | 150 | 6.1 | 13.0 | 0.00 | 0.00 | 0.00 | 63 | 1013.7 |
| 20260506042648 | 63 | 132 | 5.2 | 13.0 | 0.00 | 0.00 | 0.00 | 63 | 1013.9 |
| 20260506042547 | 63 | 143 | 5.2 | 13.0 | 0.00 | 0.00 | 0.00 | 63 | 1013.8 |
| 20260506042447 | 63 | 142 | 5.2 | 13.0 | 0.00 | 0.00 | 0.00 | 63 | 1013.9 |
| 20260506042346 | 63 | 159 | 5.2 | 12.2 | 0.00 | 0.00 | 0.00 | 63 | 1013.8 |
| 20260506042247 | 63 | 142 | 5.2 | 14.8 | 0.00 | 0.00 | 0.00 | 63 | 1013.8 |
| 20260506042147 | 63 | 169 | 5.2 | 14.8 | 0.00 | 0.00 | 0.00 | 63 | 1013.9 |
| 20260506042047 | 63 | 186 | 5.2 | 14.8 | 0.00 | 0.00 | 0.00 | 63 | 1013.8 |
| 20260506041948 | 63 | 121 | 5.2 | 14.8 | 0.00 | 0.00 | 0.00 | 63 | 1013.8 |
| 20260506041842 | 63 | 138 | 5.2 | 14.8 | 0.00 | 0.00 | 0.00 | 63 | 1013.8 |
| 20260506041743 | 63 | 211 | 5.2 | 14.8 | 0.00 | 0.00 | 0.00 | 63 | 1013.8 |
| 20260506041644 | 63 | 136 | 5.2 | 14.8 | 0.00 | 0.00 | 0.00 | 63 | 1013.8 |
| 20260506041542 | 63 | 138 | 5.2 | 14.8 | 0.00 | 0.00 | 0.00 | 63 | 1013.9 |
| 20260506041442 | 63 | 171 | 5.2 | 14.8 | 0.00 | 0.00 | 0.00 | 63 | 1013.9 |
| 20260506041343 | 63 | 146 | 5.2 | 14.8 | 0.00 | 0.00 | 0.00 | 63 | 1013.9 |
| 20260506041242 | 63 | 138 | 5.2 | 13.9 | 0.00 | 0.00 | 0.00 | 63 | 1013.9 |
| 20260506041140 | 63 | 169 | 4.3 | 13.9 | 0.00 | 0.00 | 0.00 | 63 | 1013.8 |
| 20260506041040 | 63 | 131 | 4.3 | 10.4 | 0.00 | 0.00 | 0.00 | 63 | 1013.8 |
| 20260506040942 | 63 | 144 | 4.3 | 10.4 | 0.00 | 0.00 | 0.00 | 63 | 1013.8 |
| 20260506040840 | 63 | 130 | 4.3 | 10.4 | 0.00 | 0.00 | 0.00 | 63 | 1013.8 |
| 20260506040740 | 63 | 135 | 4.3 | 10.4 | 0.00 | 0.00 | 0.00 | 63 | 1013.9 |
| 20260506040640 | 63 | 169 | 4.3 | 10.4 | 0.00 | 0.00 | 0.00 | 63 | 1013.8 |
| 20260506040540 | 63 | 161 | 4.3 | 10.4 | 0.00 | 0.00 | 0.00 | 63 | 1013.8 |
| 20260506040441 | 63 | 182 | 4.3 | 9.6 | 0.00 | 0.00 | 0.00 | 63 | 1013.8 |
| 20260506040340 | 63 | 165 | 4.3 | 9.6 | 0.00 | 0.00 | 0.00 | 63 | 1013.7 |
| 20260506040242 | 63 | 157 | 4.3 | 9.6 | 0.00 | 0.00 | 0.00 | 63 | 1013.8 |
| 20260506040141 | 63 | 149 | 4.3 | 9.6 | 0.00 | 0.00 | 0.00 | 63 | 1013.8 |
| 20260506040041 | 63 | 150 | 4.3 | 9.6 | 0.00 | 0.00 | 0.00 | 62 | 1013.8 |
| 20260506035936 | 63 | 142 | 4.3 | 9.6 | 0.00 | 0.00 | 0.00 | 62 | 1013.8 |
| 20260506035834 | 63 | 177 | 5.2 | 9.6 | 0.00 | 0.00 | 0.00 | 62 | 1013.8 |
| 20260506035736 | 63 | 272 | 5.2 | 11.3 | 0.00 | 0.00 | 0.00 | 62 | 1013.7 |
| 20260506035636 | 63 | 150 | 5.2 | 11.3 | 0.00 | 0.00 | 0.00 | 62 | 1013.7 |
| 20260506035536 | 63 | 173 | 5.2 | 11.3 | 0.00 | 0.00 | 0.00 | 62 | 1013.7 |
| 20260506035430 | 63 | 157 | 5.2 | 11.3 | 0.00 | 0.00 | 0.00 | 62 | 1013.7 |
| 20260506035331 | 63 | 174 | 5.2 | 11.3 | 0.00 | 0.00 | 0.00 | 62 | 1013.7 |
| 20260506035231 | 63 | 180 | 5.2 | 11.3 | 0.00 | 0.00 | 0.00 | 62 | 1013.8 |
| 20260506035132 | 63 | 161 | 5.2 | 11.3 | 0.00 | 0.00 | 0.00 | 62 | 1013.8 |
| 20260506035029 | 63 | 150 | 5.2 | 13.0 | 0.00 | 0.00 | 0.00 | 62 | 1013.8 |
| 20260506034923 | 63 | 150 | 5.2 | 13.0 | 0.00 | 0.00 | 0.00 | 62 | 1013.8 |
| 20260506034822 | 63 | 149 | 5.2 | 13.0 | 0.00 | 0.00 | 0.00 | 62 | 1013.8 |
| 20260506034723 | 63 | 148 | 4.3 | 13.0 | 0.00 | 0.00 | 0.00 | 62 | 1013.9 |
| 20260506034622 | 63 | 169 | 4.3 | 13.0 | 0.00 | 0.00 | 0.00 | 62 | 1013.8 |
| 20260506034523 | 63 | 140 | 4.3 | 13.0 | 0.00 | 0.00 | 0.00 | 62 | 1013.9 |
| 20260506034422 | 63 | 162 | 4.3 | 13.0 | 0.00 | 0.00 | 0.00 | 62 | 1013.9 |
| 20260506034322 | 63 | 157 | 4.3 | 13.0 | 0.00 | 0.00 | 0.00 | 61 | 1013.9 |
| 20260506034222 | 63 | 125 | 4.3 | 13.0 | 0.00 | 0.00 | 0.00 | 62 | 1013.9 |
| 20260506034123 | 63 | 159 | 4.3 | 13.0 | 0.00 | 0.00 | 0.00 | 62 | 1013.9 |
| 20260506034023 | 63 | 144 | 4.3 | 9.6 | 0.00 | 0.00 | 0.00 | 62 | 1014.0 |
| 20260506033922 | 63 | 115 | 4.3 | 9.6 | 0.00 | 0.00 | 0.00 | 62 | 1013.9 |
| 20260506033823 | 63 | 146 | 3.5 | 8.7 | 0.00 | 0.00 | 0.00 | 62 | 1014.0 |
| 20260506033722 | 63 | 142 | 4.3 | 8.7 | 0.00 | 0.00 | 0.00 | 62 | 1014.0 |
| 20260506033620 | 63 | 176 | 4.3 | 8.7 | 0.00 | 0.00 | 0.00 | 61 | 1014.1 |
| 20260506033520 | 63 | 167 | 4.3 | 8.7 | 0.00 | 0.00 | 0.00 | 61 | 1014.0 |
| 20260506033421 | 63 | 147 | 4.3 | 8.7 | 0.00 | 0.00 | 0.00 | 61 | 1013.9 |
| 20260506033322 | 63 | 196 | 3.5 | 8.7 | 0.00 | 0.00 | 0.00 | 61 | 1014.0 |
| 20260506033214 | 63 | 178 | 3.5 | 8.7 | 0.00 | 0.00 | 0.00 | 61 | 1013.9 |
| 20260506033114 | 63 | 138 | 3.5 | 8.7 | 0.00 | 0.00 | 0.00 | 61 | 1013.9 |
| 20260506033015 | 63 | 202 | 3.5 | 8.7 | 0.00 | 0.00 | 0.00 | 61 | 1014.0 |
| 20260506032916 | 63 | 178 | 3.5 | 8.7 | 0.00 | 0.00 | 0.00 | 61 | 1014.0 |
| 20260506032815 | 63 | 155 | 3.5 | 8.7 | 0.00 | 0.00 | 0.00 | 61 | 1014.0 |
| 20260506032713 | 63 | 102 | 3.5 | 6.1 | 0.00 | 0.00 | 0.00 | 61 | 1013.9 |
| 20260506032612 | 63 | 103 | 3.5 | 6.1 | 0.00 | 0.00 | 0.00 | 61 | 1013.9 |
| 20260506032513 | 63 | 153 | 3.5 | 8.7 | 0.00 | 0.00 | 0.00 | 61 | 1014.0 |
| 20260506032411 | 63 | 144 | 3.5 | 9.6 | 0.00 | 0.00 | 0.00 | 61 | 1013.9 |
| 20260506032309 | 63 | 142 | 3.5 | 9.6 | 0.00 | 0.00 | 0.00 | 61 | 1014.0 |
| 20260506032208 | 63 | 148 | 3.5 | 9.6 | 0.00 | 0.00 | 0.00 | 61 | 1014.0 |
| 20260506032109 | 63 | 170 | 3.5 | 9.6 | 0.00 | 0.00 | 0.00 | 61 | 1014.0 |
| 20260506032008 | 63 | 130 | 3.5 | 9.6 | 0.00 | 0.00 | 0.00 | 61 | 1014.0 |
| 20260506031906 | 63 | 156 | 3.5 | 9.6 | 0.00 | 0.00 | 0.00 | 61 | 1013.9 |
| 20260506031806 | 63 | 142 | 3.5 | 9.6 | 0.00 | 0.00 | 0.00 | 61 | 1013.9 |
| 20260506031707 | 63 | 171 | 3.5 | 9.6 | 0.00 | 0.00 | 0.00 | 61 | 1013.9 |
| 20260506031607 | 63 | 157 | 3.5 | 9.6 | 0.00 | 0.00 | 0.00 | 61 | 1013.9 |
| 20260506031508 | 63 | 157 | 3.5 | 8.7 | 0.00 | 0.00 | 0.00 | 61 | 1013.9 |
| 20260506031406 | 63 | 166 | 3.5 | 8.7 | 0.00 | 0.00 | 0.00 | 61 | 1013.9 |
| 20260506031306 | 63 | 150 | 3.5 | 8.7 | 0.00 | 0.00 | 0.00 | 61 | 1013.9 |
| 20260506031206 | 63 | 146 | 4.3 | 8.7 | 0.00 | 0.00 | 0.00 | 61 | 1013.8 |
| 20260506031107 | 63 | 153 | 4.3 | 8.7 | 0.00 | 0.00 | 0.00 | 61 | 1013.8 |
| 20260506031002 | 63 | 155 | 4.3 | 8.7 | 0.00 | 0.00 | 0.00 | 61 | 1013.9 |
| 20260506030900 | 63 | 144 | 4.3 | 8.7 | 0.00 | 0.00 | 0.00 | 61 | 1013.9 |
| 20260506030801 | 63 | 134 | 4.3 | 8.7 | 0.00 | 0.00 | 0.00 | 60 | 1013.9 |
| 20260506030701 | 63 | 175 | 4.3 | 8.7 | 0.00 | 0.00 | 0.00 | 61 | 1013.9 |
| 20260506030601 | 63 | 130 | 4.3 | 7.8 | 0.00 | 0.00 | 0.00 | 61 | 1013.9 |
| 20260506030459 | 63 | 155 | 4.3 | 7.8 | 0.00 | 0.00 | 0.00 | 61 | 1014.0 |
| 20260506030359 | 63 | 146 | 4.3 | 7.8 | 0.00 | 0.00 | 0.00 | 60 | 1014.0 |
| 20260506030259 | 63 | 138 | 4.3 | 8.7 | 0.00 | 0.00 | 0.00 | 61 | 1014.0 |
| 20260506030159 | 63 | 136 | 3.5 | 8.7 | 0.00 | 0.00 | 0.00 | 61 | 1013.9 |
| 20260506030058 | 63 | 143 | 3.5 | 8.7 | 0.00 | 0.00 | 0.00 | 61 | 1013.9 |
| 20260506030000 | 63 | 161 | 3.5 | 8.7 | 0.00 | 0.00 | 0.00 | 61 | 1014.0 |
| 20260506025858 | 63 | 138 | 3.5 | 8.7 | 0.00 | 0.00 | 0.00 | 60 | 1014.0 |
| 20260506025757 | 63 | 142 | 3.5 | 8.7 | 0.00 | 0.00 | 0.00 | 60 | 1013.9 |
| 20260506025654 | 63 | 146 | 3.5 | 8.7 | 0.00 | 0.00 | 0.00 | 60 | 1013.8 |
| 20260506025555 | 63 | 180 | 3.5 | 8.7 | 0.00 | 0.00 | 0.00 | 61 | 1013.9 |
| 20260506025454 | 63 | 115 | 3.5 | 8.7 | 0.00 | 0.00 | 0.00 | 61 | 1013.9 |
| 20260506025354 | 63 | 168 | 3.5 | 8.7 | 0.00 | 0.00 | 0.00 | 61 | 1013.9 |
| 20260506025255 | 63 | 143 | 3.5 | 9.6 | 0.00 | 0.00 | 0.00 | 61 | 1014.0 |
| 20260506025153 | 63 | 161 | 3.5 | 9.6 | 0.00 | 0.00 | 0.00 | 61 | 1014.0 |
| 20260506025053 | 64 | 155 | 3.5 | 9.6 | 0.00 | 0.00 | 0.00 | 60 | 1014.0 |
| 20260506024952 | 64 | 121 | 3.5 | 9.6 | 0.00 | 0.00 | 0.00 | 61 | 1014.0 |
| 20260506024854 | 64 | 127 | 4.3 | 9.6 | 0.00 | 0.00 | 0.00 | 60 | 1014.0 |
| 20260506024748 | 64 | 158 | 4.3 | 9.6 | 0.00 | 0.00 | 0.00 | 60 | 1014.0 |
| 20260506024646 | 64 | 142 | 4.3 | 9.6 | 0.00 | 0.00 | 0.00 | 61 | 1014.0 |
| 20260506024548 | 64 | 147 | 4.3 | 9.6 | 0.00 | 0.00 | 0.00 | 60 | 1014.0 |
| 20260506024445 | 64 | 133 | 4.3 | 9.6 | 0.00 | 0.00 | 0.00 | 60 | 1014.0 |
| 20260506024345 | 64 | 119 | 3.5 | 9.6 | 0.00 | 0.00 | 0.00 | 60 | 1014.0 |
| 20260506024239 | 64 | 150 | 3.5 | 7.8 | 0.00 | 0.00 | 0.00 | 60 | 1014.0 |
| 20260506024139 | 64 | 149 | 3.5 | 7.8 | 0.00 | 0.00 | 0.00 | 60 | 1014.0 |
| 20260506024040 | 64 | 142 | 3.5 | 7.8 | 0.00 | 0.00 | 0.00 | 60 | 1013.8 |
| 20260506023938 | 64 | 135 | 3.5 | 7.8 | 0.00 | 0.00 | 0.00 | 60 | 1013.9 |
| 20260506023838 | 64 | 126 | 3.5 | 7.8 | 0.00 | 0.00 | 0.00 | 60 | 1014.0 |
| 20260506023739 | 64 | 167 | 3.5 | 7.8 | 0.00 | 0.00 | 0.00 | 60 | 1014.0 |
| 20260506023639 | 64 | 144 | 2.6 | 7.8 | 0.00 | 0.00 | 0.00 | 60 | 1014.0 |
| 20260506023540 | 64 | 161 | 2.6 | 7.0 | 0.00 | 0.00 | 0.00 | 59 | 1014.0 |
| 20260506023439 | 64 | 166 | 2.6 | 7.0 | 0.00 | 0.00 | 0.00 | 59 | 1014.1 |
| 20260506023339 | 64 | 148 | 2.6 | 6.1 | 0.00 | 0.00 | 0.00 | 60 | 1014.1 |
| 20260506023240 | 64 | 123 | 2.6 | 6.1 | 0.00 | 0.00 | 0.00 | 59 | 1014.1 |
| 20260506023138 | 64 | 123 | 2.6 | 6.1 | 0.00 | 0.00 | 0.00 | 59 | 1014.1 |
| 20260506023038 | 64 | 154 | 2.6 | 6.1 | 0.00 | 0.00 | 0.00 | 59 | 1014.2 |
| 20260506022939 | 64 | 121 | 2.6 | 6.1 | 0.00 | 0.00 | 0.00 | 59 | 1014.2 |
| 20260506022839 | 64 | 155 | 2.6 | 6.1 | 0.00 | 0.00 | 0.00 | 59 | 1014.3 |
| 20260506022738 | 64 | 171 | 2.6 | 7.8 | 0.00 | 0.00 | 0.00 | 59 | 1014.3 |
| 20260506022640 | 64 | 145 | 2.6 | 9.6 | 0.00 | 0.00 | 0.00 | 59 | 1014.3 |
| 20260506022539 | 64 | 144 | 3.5 | 9.6 | 0.00 | 0.00 | 0.00 | 59 | 1014.3 |
| 20260506022440 | 64 | 162 | 3.5 | 9.6 | 0.00 | 0.00 | 0.00 | 59 | 1014.1 |
| 20260506022338 | 64 | 143 | 3.5 | 9.6 | 0.00 | 0.00 | 0.00 | 59 | 1014.2 |
| 20260506022239 | 64 | 144 | 3.5 | 9.6 | 0.00 | 0.00 | 0.00 | 59 | 1014.1 |
| 20260506022140 | 64 | 142 | 3.5 | 9.6 | 0.00 | 0.00 | 0.00 | 59 | 1014.1 |
| 20260506022038 | 64 | 142 | 3.5 | 9.6 | 0.00 | 0.00 | 0.00 | 59 | 1014.1 |
| 20260506021940 | 64 | 116 | 3.5 | 9.6 | 0.00 | 0.00 | 0.00 | 59 | 1014.1 |
| 20260506021838 | 64 | 182 | 3.5 | 9.6 | 0.00 | 0.00 | 0.00 | 59 | 1014.1 |
| 20260506021740 | 64 | 136 | 3.5 | 8.7 | 0.00 | 0.00 | 0.00 | 59 | 1014.3 |
| 20260506021635 | 64 | 162 | 3.5 | 7.8 | 0.00 | 0.00 | 0.00 | 59 | 1014.2 |
| 20260506021534 | 64 | 101 | 3.5 | 7.8 | 0.00 | 0.00 | 0.00 | 59 | 1014.2 |
| 20260506021434 | 64 | 159 | 3.5 | 7.8 | 0.00 | 0.00 | 0.00 | 59 | 1014.3 |
| 20260506021335 | 64 | 118 | 3.5 | 7.8 | 0.00 | 0.00 | 0.00 | 59 | 1014.2 |
| 20260506021235 | 64 | 144 | 3.5 | 7.8 | 0.00 | 0.00 | 0.00 | 59 | 1014.2 |
| 20260506021135 | 64 | 119 | 3.5 | 7.8 | 0.00 | 0.00 | 0.00 | 59 | 1014.2 |
| 20260506021034 | 64 | 294 | 3.5 | 7.8 | 0.00 | 0.00 | 0.00 | 59 | 1014.2 |
| 20260506020934 | 64 | 130 | 3.5 | 7.8 | 0.00 | 0.00 | 0.00 | 59 | 1014.2 |
| 20260506020834 | 64 | 124 | 3.5 | 7.8 | 0.00 | 0.00 | 0.00 | 59 | 1014.2 |
| 20260506020735 | 64 | 111 | 3.5 | 7.8 | 0.00 | 0.00 | 0.00 | 59 | 1014.2 |
| 20260506020635 | 64 | 153 | 3.5 | 7.8 | 0.00 | 0.00 | 0.00 | 59 | 1014.2 |
| 20260506020534 | 64 | 185 | 3.5 | 9.6 | 0.00 | 0.00 | 0.00 | 59 | 1014.1 |
| 20260506020434 | 64 | 192 | 3.5 | 9.6 | 0.00 | 0.00 | 0.00 | 59 | 1014.1 |
| 20260506020335 | 64 | 126 | 3.5 | 9.6 | 0.00 | 0.00 | 0.00 | 59 | 1014.1 |
| 20260506020234 | 64 | 118 | 4.3 | 10.4 | 0.00 | 0.00 | 0.00 | 59 | 1014.1 |
| 20260506020134 | 64 | 120 | 4.3 | 10.4 | 0.00 | 0.00 | 0.00 | 59 | 1014.1 |
| 20260506020034 | 64 | 185 | 4.3 | 10.4 | 0.00 | 0.00 | 0.00 | 59 | 1014.1 |
| 20260506015934 | 64 | 185 | 4.3 | 10.4 | 0.00 | 0.00 | 0.00 | 59 | 1014.1 |
| 20260506015834 | 64 | 133 | 4.3 | 10.4 | 0.00 | 0.00 | 0.00 | 59 | 1014.1 |
| 20260506015734 | 64 | 107 | 4.3 | 10.4 | 0.00 | 0.00 | 0.00 | 59 | 1014.1 |
| 20260506015635 | 64 | 144 | 3.5 | 10.4 | 0.00 | 0.00 | 0.00 | 59 | 1014.1 |
| 20260506015535 | 64 | 140 | 3.5 | 10.4 | 0.00 | 0.00 | 0.00 | 59 | 1014.0 |
| 20260506015434 | 64 | 153 | 3.5 | 10.4 | 0.00 | 0.00 | 0.00 | 59 | 1014.1 |
| 20260506015334 | 64 | 158 | 3.5 | 10.4 | 0.00 | 0.00 | 0.00 | 59 | 1014.1 |
| 20260506015235 | 64 | 126 | 3.5 | 10.4 | 0.00 | 0.00 | 0.00 | 59 | 1014.1 |
| 20260506015136 | 64 | 115 | 3.5 | 10.4 | 0.00 | 0.00 | 0.00 | 59 | 1014.2 |
| 20260506015035 | 64 | 170 | 3.5 | 10.4 | 0.00 | 0.00 | 0.00 | 59 | 1014.2 |
| 20260506014934 | 64 | 150 | 3.5 | 10.4 | 0.00 | 0.00 | 0.00 | 59 | 1014.1 |
| 20260506014835 | 64 | 221 | 3.5 | 7.8 | 0.00 | 0.00 | 0.00 | 59 | 1014.2 |
| 20260506014734 | 64 | 171 | 3.5 | 7.8 | 0.00 | 0.00 | 0.00 | 59 | 1014.1 |
| 20260506014634 | 64 | 152 | 3.5 | 10.4 | 0.00 | 0.00 | 0.00 | 59 | 1014.1 |
| 20260506014534 | 64 | 150 | 3.5 | 10.4 | 0.00 | 0.00 | 0.00 | 59 | 1014.1 |
| 20260506014436 | 64 | 156 | 3.5 | 10.4 | 0.00 | 0.00 | 0.00 | 59 | 1014.1 |
| 20260506014332 | 64 | 151 | 3.5 | 10.4 | 0.00 | 0.00 | 0.00 | 59 | 1014.2 |
| 20260506014232 | 64 | 162 | 3.5 | 10.4 | 0.00 | 0.00 | 0.00 | 58 | 1014.1 |
| 20260506014130 | 64 | 145 | 3.5 | 10.4 | 0.00 | 0.00 | 0.00 | 58 | 1014.1 |
| 20260506014030 | 64 | 168 | 3.5 | 10.4 | 0.00 | 0.00 | 0.00 | 58 | 1014.2 |
| 20260506013930 | 64 | 163 | 3.5 | 10.4 | 0.00 | 0.00 | 0.00 | 58 | 1014.2 |
| 20260506013830 | 64 | 172 | 3.5 | 10.4 | 0.00 | 0.00 | 0.00 | 58 | 1014.1 |
| 20260506013731 | 64 | 148 | 3.5 | 10.4 | 0.00 | 0.00 | 0.00 | 58 | 1014.2 |
| 20260506013631 | 64 | 222 | 3.5 | 9.6 | 0.00 | 0.00 | 0.00 | 58 | 1014.2 |
| 20260506013531 | 64 | 159 | 3.5 | 9.6 | 0.00 | 0.00 | 0.00 | 58 | 1014.2 |
| 20260506013430 | 64 | 180 | 3.5 | 9.6 | 0.00 | 0.00 | 0.00 | 58 | 1014.2 |
| 20260506013331 | 64 | 134 | 3.5 | 9.6 | 0.00 | 0.00 | 0.00 | 58 | 1014.1 |
| 20260506013230 | 64 | 148 | 3.5 | 9.6 | 0.00 | 0.00 | 0.00 | 58 | 1014.2 |
| 20260506013130 | 65 | 166 | 3.5 | 8.7 | 0.00 | 0.00 | 0.00 | 58 | 1014.3 |
| 20260506013031 | 65 | 113 | 3.5 | 8.7 | 0.00 | 0.00 | 0.00 | 58 | 1014.1 |
| 20260506012930 | 65 | 159 | 3.5 | 8.7 | 0.00 | 0.00 | 0.00 | 58 | 1014.1 |
| 20260506012832 | 65 | 153 | 3.5 | 8.7 | 0.00 | 0.00 | 0.00 | 58 | 1014.2 |
| 20260506012730 | 65 | 205 | 3.5 | 8.7 | 0.00 | 0.00 | 0.00 | 58 | 1014.1 |
| 20260506012632 | 65 | 166 | 3.5 | 8.7 | 0.00 | 0.00 | 0.00 | 58 | 1014.1 |
| 20260506012530 | 65 | 174 | 3.5 | 8.7 | 0.00 | 0.00 | 0.00 | 58 | 1014.1 |
| 20260506012431 | 65 | 140 | 4.3 | 8.7 | 0.00 | 0.00 | 0.00 | 57 | 1014.1 |
| 20260506012330 | 65 | 123 | 3.5 | 8.7 | 0.00 | 0.00 | 0.00 | 57 | 1014.0 |
| 20260506012230 | 65 | 167 | 3.5 | 8.7 | 0.00 | 0.00 | 0.00 | 58 | 1014.1 |
| 20260506012131 | 65 | 150 | 3.5 | 8.7 | 0.00 | 0.00 | 0.00 | 58 | 1014.1 |
| 20260506012030 | 65 | 124 | 3.5 | 8.7 | 0.00 | 0.00 | 0.00 | 57 | 1014.0 |
| 20260506011930 | 65 | 135 | 3.5 | 8.7 | 0.00 | 0.00 | 0.00 | 58 | 1014.1 |
| 20260506011832 | 65 | 130 | 3.5 | 8.7 | 0.00 | 0.00 | 0.00 | 57 | 1014.1 |
| 20260506011730 | 65 | 173 | 3.5 | 10.4 | 0.00 | 0.00 | 0.00 | 57 | 1014.2 |
| 20260506011631 | 65 | 201 | 3.5 | 10.4 | 0.00 | 0.00 | 0.00 | 57 | 1014.2 |
| 20260506011530 | 65 | 149 | 3.5 | 10.4 | 0.00 | 0.00 | 0.00 | 57 | 1014.2 |
| 20260506011431 | 65 | 196 | 3.5 | 10.4 | 0.00 | 0.00 | 0.00 | 57 | 1014.2 |
| 20260506011330 | 65 | 164 | 3.5 | 10.4 | 0.00 | 0.00 | 0.00 | 57 | 1014.1 |
| 20260506011232 | 65 | 150 | 3.5 | 10.4 | 0.00 | 0.00 | 0.00 | 57 | 1014.2 |
| 20260506011131 | 65 | 121 | 3.5 | 10.4 | 0.00 | 0.00 | 0.00 | 57 | 1014.1 |
| 20260506011026 | 65 | 164 | 3.5 | 10.4 | 0.00 | 0.00 | 0.00 | 57 | 1014.2 |
| 20260506010927 | 65 | 133 | 3.5 | 10.4 | 0.00 | 0.00 | 0.00 | 57 | 1014.1 |
| 20260506010826 | 65 | 156 | 3.5 | 10.4 | 0.00 | 0.00 | 0.00 | 57 | 1014.1 |
| 20260506010726 | 65 | 151 | 3.5 | 8.7 | 0.00 | 0.00 | 0.00 | 57 | 1014.1 |
| 20260506010627 | 65 | 136 | 3.5 | 8.7 | 0.00 | 0.00 | 0.00 | 57 | 1014.1 |